Time,TemperatureF,DewpointF,PressureIn,WindDirection,WindDirectionDegrees,WindSpeedMPH,WindSpeedGustMPH,Humidity,HourlyPrecipIn,Conditions,Clouds,dailyrainin,SolarRadiationWatts/m^2,SoftwareType,DateUTC
2013-11-03 00:00:00,38.5,34.4,30.08,SE,138,0.0,0.0,85,0.00,,,0.00,0,Wunderground v.1.15,2013-11-03 05:00:00,
2013-11-03 00:04:00,38.4,34.3,30.07,SE,138,0.0,0.0,85,0.00,,,0.00,0,Wunderground v.1.15,2013-11-03 05:04:00,
2013-11-03 00:07:00,38.3,34.2,30.07,SE,138,0.0,1.0,85,0.00,,,0.00,0,Wunderground v.1.15,2013-11-03 05:07:00,
2013-11-03 00:09:00,38.4,34.3,30.07,SE,138,0.0,1.0,85,0.00,,,0.00,0,Wunderground v.1.15,2013-11-03 05:09:00,
2013-11-03 00:11:00,38.4,34.3,30.07,SE,138,0.0,1.0,85,0.00,,,0.00,0,Wunderground v.1.15,2013-11-03 05:11:00,
2013-11-03 00:12:00,38.4,34.3,30.07,SE,138,0.0,0.0,85,0.00,,,0.00,0,Wunderground v.1.15,2013-11-03 05:12:00,
2013-11-03 00:17:00,38.6,34.5,30.07,SE,138,0.0,0.0,85,0.00,,,0.00,0,Wunderground v.1.15,2013-11-03 05:17:00,
2013-11-03 00:19:00,38.1,33.7,30.07,SE,138,0.0,0.0,84,0.00,,,0.00,0,Wunderground v.1.15,2013-11-03 05:19:00,
2013-11-03 00:20:00,37.8,33.4,30.07,SE,138,0.0,0.0,84,0.00,,,0.00,0,Wunderground v.1.15,2013-11-03 05:20:00,
2013-11-03 00:22:00,37.3,32.9,30.07,SE,138,0.0,0.0,84,0.00,,,0.00,0,Wunderground v.1.15,2013-11-03 05:22:00,
2013-11-03 00:24:00,37.0,33.2,30.07,SE,138,0.0,0.0,86,0.00,,,0.00,0,Wunderground v.1.15,2013-11-03 05:24:00,
2013-11-03 00:27:00,37.0,33.5,30.07,SE,138,0.0,0.0,87,0.00,,,0.00,0,Wunderground v.1.15,2013-11-03 05:27:00,
2013-11-03 00:29:00,37.0,33.5,30.07,SE,138,0.0,0.0,87,0.00,,,0.00,0,Wunderground v.1.15,2013-11-03 05:29:00,
2013-11-03 00:30:00,37.1,33.6,30.07,SE,138,0.0,0.0,87,0.00,,,0.00,0,Wunderground v.1.15,2013-11-03 05:30:00,
2013-11-03 00:31:00,37.1,33.6,30.07,SE,138,0.0,0.0,87,0.00,,,0.00,0,Wunderground v.1.15,2013-11-03 05:31:00,
2013-11-03 00:32:00,37.2,33.7,30.07,SE,138,0.0,0.0,87,0.00,,,0.00,0,Wunderground v.1.15,2013-11-03 05:32:00,
2013-11-03 00:33:00,37.2,33.7,30.07,SE,138,0.0,0.0,87,0.00,,,0.00,0,Wunderground v.1.15,2013-11-03 05:33:00,
2013-11-03 00:36:00,37.1,33.6,30.07,SE,138,0.0,0.0,87,0.00,,,0.00,0,Wunderground v.1.15,2013-11-03 05:36:00,
2013-11-03 00:39:00,37.1,33.6,30.07,SE,138,0.0,0.0,87,0.00,,,0.00,0,Wunderground v.1.15,2013-11-03 05:39:00,
2013-11-03 00:41:00,37.1,33.6,30.07,SE,138,0.0,1.0,87,0.00,,,0.00,0,Wunderground v.1.15,2013-11-03 05:41:00,
2013-11-03 00:43:00,37.1,33.9,30.07,SE,138,0.0,0.0,88,0.00,,,0.00,0,Wunderground v.1.15,2013-11-03 05:43:00,
2013-11-03 00:44:00,37.0,33.5,30.08,SE,138,0.0,0.0,87,0.00,,,0.00,0,Wunderground v.1.15,2013-11-03 05:44:00,
2013-11-03 00:45:00,36.9,33.4,30.08,SE,138,0.0,0.0,87,0.00,,,0.00,0,Wunderground v.1.15,2013-11-03 05:45:00,
2013-11-03 00:46:00,36.7,33.2,30.08,SE,138,0.0,0.0,87,0.00,,,0.00,0,Wunderground v.1.15,2013-11-03 05:46:00,
2013-11-03 00:48:00,36.4,32.9,30.08,SE,138,0.0,0.0,87,0.00,,,0.00,0,Wunderground v.1.15,2013-11-03 05:48:00,
2013-11-03 00:51:00,36.3,33.1,30.08,SE,138,0.0,0.0,88,0.00,,,0.00,0,Wunderground v.1.15,2013-11-03 05:51:00,
2013-11-03 00:52:00,36.3,33.1,30.08,SE,138,0.0,0.0,88,0.00,,,0.00,0,Wunderground v.1.15,2013-11-03 05:52:00,
2013-11-03 00:55:00,36.3,33.4,30.08,SE,138,0.0,0.0,89,0.00,,,0.00,0,Wunderground v.1.15,2013-11-03 05:55:00,
2013-11-03 00:58:00,36.4,33.2,30.08,SE,138,0.0,0.0,88,0.00,,,0.00,0,Wunderground v.1.15,2013-11-03 05:58:00,
2013-11-03 00:59:00,36.4,33.5,30.08,SE,138,0.0,0.0,89,0.00,,,0.00,0,Wunderground v.1.15,2013-11-03 05:59:00,
2013-11-03 01:00:00,36.5,33.6,30.08,SE,138,1.0,1.0,89,0.00,,,0.00,0,Wunderground v.1.15,2013-11-03 06:00:00,
2013-11-03 01:02:00,36.5,33.6,30.08,SE,138,0.0,0.0,89,0.00,,,0.00,0,Wunderground v.1.15,2013-11-03 06:02:00,
2013-11-03 01:03:00,36.5,33.6,30.08,SE,138,1.0,1.0,89,0.00,,,0.00,0,Wunderground v.1.15,2013-11-03 06:03:00,
2013-11-03 01:04:00,36.5,33.3,30.08,SE,138,1.0,1.0,88,0.00,,,0.00,0,Wunderground v.1.15,2013-11-03 06:04:00,
2013-11-03 01:05:00,36.5,33.3,30.08,SE,138,0.0,1.0,88,0.00,,,0.00,0,Wunderground v.1.15,2013-11-03 06:05:00,
2013-11-03 01:06:00,36.5,33.6,30.08,SE,138,1.0,1.0,89,0.00,,,0.00,0,Wunderground v.1.15,2013-11-03 06:06:00,
2013-11-03 01:09:00,36.5,33.6,30.08,SE,138,0.0,2.0,89,0.00,,,0.00,0,Wunderground v.1.15,2013-11-03 06:09:00,
2013-11-03 01:13:00,35.9,32.7,30.08,SE,138,0.0,1.0,88,0.00,,,0.00,0,Wunderground v.1.15,2013-11-03 06:13:00,
2013-11-03 01:14:00,35.7,32.5,30.08,SE,138,0.0,1.0,88,0.00,,,0.00,0,Wunderground v.1.15,2013-11-03 06:14:00,
2013-11-03 01:15:00,35.6,32.7,30.08,SE,138,0.0,1.0,89,0.00,,,0.00,0,Wunderground v.1.15,2013-11-03 06:15:00,
2013-11-03 01:17:00,35.5,32.6,30.08,SE,138,0.0,1.0,89,0.00,,,0.00,0,Wunderground v.1.15,2013-11-03 06:17:00,
2013-11-03 01:19:00,35.5,32.6,30.08,SE,138,0.0,1.0,89,0.00,,,0.00,0,Wunderground v.1.15,2013-11-03 06:19:00,
2013-11-03 01:20:00,35.5,32.6,30.08,SE,138,0.0,1.0,89,0.00,,,0.00,0,Wunderground v.1.15,2013-11-03 06:20:00,
2013-11-03 01:21:00,35.6,32.7,30.08,SE,138,0.0,1.0,89,0.00,,,0.00,0,Wunderground v.1.15,2013-11-03 06:21:00,
2013-11-03 01:24:00,35.5,32.9,30.08,SE,138,0.0,0.0,90,0.00,,,0.00,0,Wunderground v.1.15,2013-11-03 06:24:00,
2013-11-03 01:25:00,35.6,33.0,30.08,SE,138,0.0,0.0,90,0.00,,,0.00,0,Wunderground v.1.15,2013-11-03 06:25:00,
2013-11-03 01:27:00,35.6,33.0,30.09,SE,138,0.0,0.0,90,0.00,,,0.00,0,Wunderground v.1.15,2013-11-03 06:27:00,
2013-11-03 01:29:00,35.4,32.5,30.09,SE,138,0.0,0.0,89,0.00,,,0.00,0,Wunderground v.1.15,2013-11-03 06:29:00,
2013-11-03 01:31:00,35.3,32.7,30.09,SE,138,0.0,0.0,90,0.00,,,0.00,0,Wunderground v.1.15,2013-11-03 06:31:00,
2013-11-03 01:33:00,35.4,32.8,30.09,SE,138,0.0,0.0,90,0.00,,,0.00,0,Wunderground v.1.15,2013-11-03 06:33:00,
2013-11-03 01:34:00,35.5,32.9,30.08,SE,138,1.0,1.0,90,0.00,,,0.00,0,Wunderground v.1.15,2013-11-03 06:34:00,
2013-11-03 01:37:00,35.5,32.9,30.09,SE,138,0.0,1.0,90,0.00,,,0.00,0,Wunderground v.1.15,2013-11-03 06:37:00,
2013-11-03 01:39:00,35.5,32.9,30.09,SE,138,0.0,1.0,90,0.00,,,0.00,0,Wunderground v.1.15,2013-11-03 06:39:00,
2013-11-03 01:40:00,35.3,32.7,30.09,SE,138,0.0,1.0,90,0.00,,,0.00,0,Wunderground v.1.15,2013-11-03 06:40:00,
2013-11-03 01:41:00,35.3,32.7,30.09,SE,138,0.0,1.0,90,0.00,,,0.00,0,Wunderground v.1.15,2013-11-03 06:41:00,
2013-11-03 01:43:00,35.4,32.8,30.09,SE,138,0.0,0.0,90,0.00,,,0.00,0,Wunderground v.1.15,2013-11-03 06:43:00,
2013-11-03 01:45:00,35.4,32.8,30.09,SE,138,0.0,0.0,90,0.00,,,0.00,0,Wunderground v.1.15,2013-11-03 06:45:00,
2013-11-03 01:46:00,35.5,32.9,30.09,SE,138,0.0,0.0,90,0.00,,,0.00,0,Wunderground v.1.15,2013-11-03 06:46:00,
2013-11-03 01:47:00,35.6,33.0,30.09,SE,138,0.0,0.0,90,0.00,,,0.00,0,Wunderground v.1.15,2013-11-03 06:47:00,
2013-11-03 01:48:00,35.6,33.0,30.09,SE,138,0.0,0.0,90,0.00,,,0.00,0,Wunderground v.1.15,2013-11-03 06:48:00,
2013-11-03 01:52:00,35.6,33.0,30.09,SE,138,0.0,0.0,90,0.00,,,0.00,0,Wunderground v.1.15,2013-11-03 06:52:00,
2013-11-03 01:54:00,35.7,33.1,30.09,SE,138,3.0,3.0,90,0.00,,,0.00,0,Wunderground v.1.15,2013-11-03 06:54:00,
2013-11-03 01:58:00,35.9,33.3,30.09,SE,138,1.0,3.0,90,0.00,,,0.00,0,Wunderground v.1.15,2013-11-03 06:58:00,
2013-11-03 01:00:00,35.8,33.2,30.09,SE,138,0.0,3.0,90,0.00,,,0.00,0,Wunderground v.1.15,2013-11-03 07:00:00,
2013-11-03 01:03:00,35.5,32.6,30.09,SE,138,2.0,2.0,89,0.00,,,0.00,0,Wunderground v.1.15,2013-11-03 07:03:00,
2013-11-03 01:04:00,35.6,32.7,30.08,SE,138,3.0,3.0,89,0.00,,,0.00,0,Wunderground v.1.15,2013-11-03 07:04:00,
2013-11-03 01:05:00,35.6,33.0,30.09,SE,138,2.0,3.0,90,0.00,,,0.00,0,Wunderground v.1.15,2013-11-03 07:05:00,
2013-11-03 01:06:00,35.7,33.1,30.09,SE,138,2.0,3.0,90,0.00,,,0.00,0,Wunderground v.1.15,2013-11-03 07:06:00,
2013-11-03 01:09:00,35.7,33.1,30.09,SE,138,1.0,3.0,90,0.00,,,0.00,0,Wunderground v.1.15,2013-11-03 07:09:00,
2013-11-03 01:11:00,36.0,33.4,30.09,SE,138,2.0,3.0,90,0.00,,,0.00,0,Wunderground v.1.15,2013-11-03 07:11:00,
2013-11-03 01:12:00,36.0,33.4,30.09,SE,138,0.0,2.0,90,0.00,,,0.00,0,Wunderground v.1.15,2013-11-03 07:12:00,
2013-11-03 01:14:00,35.9,33.0,30.09,SE,138,0.0,2.0,89,0.00,,,0.00,0,Wunderground v.1.15,2013-11-03 07:14:00,
2013-11-03 01:15:00,35.9,33.0,30.09,SE,138,0.0,2.0,89,0.00,,,0.00,0,Wunderground v.1.15,2013-11-03 07:15:00,
2013-11-03 01:16:00,35.8,32.9,30.09,SE,138,0.0,2.0,89,0.00,,,0.00,0,Wunderground v.1.15,2013-11-03 07:16:00,
2013-11-03 01:18:00,35.7,32.8,30.09,SE,138,0.0,2.0,89,0.00,,,0.00,0,Wunderground v.1.15,2013-11-03 07:18:00,
2013-11-03 01:20:00,35.7,32.8,30.08,SE,138,0.0,2.0,89,0.00,,,0.00,0,Wunderground v.1.15,2013-11-03 07:20:00,
2013-11-03 01:21:00,35.6,32.7,30.08,SE,138,0.0,2.0,89,0.00,,,0.00,0,Wunderground v.1.15,2013-11-03 07:21:00,
2013-11-03 01:24:00,35.5,32.6,30.08,SE,138,0.0,0.0,89,0.00,,,0.00,0,Wunderground v.1.15,2013-11-03 07:24:00,
2013-11-03 01:25:00,35.5,32.6,30.08,SE,138,0.0,0.0,89,0.00,,,0.00,0,Wunderground v.1.15,2013-11-03 07:25:00,
2013-11-03 01:26:00,35.6,32.7,30.08,SE,138,0.0,0.0,89,0.00,,,0.00,0,Wunderground v.1.15,2013-11-03 07:26:00,
2013-11-03 01:28:00,35.6,33.0,30.08,SE,138,3.0,3.0,90,0.00,,,0.00,0,Wunderground v.1.15,2013-11-03 07:28:00,
2013-11-03 01:31:00,35.8,33.2,30.08,SE,138,2.0,3.0,90,0.00,,,0.00,0,Wunderground v.1.15,2013-11-03 07:31:00,
2013-11-03 01:32:00,35.9,33.3,30.08,SE,138,3.0,3.0,90,0.00,,,0.00,0,Wunderground v.1.15,2013-11-03 07:32:00,
2013-11-03 01:33:00,35.9,33.3,30.08,SE,138,2.0,3.0,90,0.00,,,0.00,0,Wunderground v.1.15,2013-11-03 07:33:00,
2013-11-03 01:35:00,35.9,33.0,30.08,SE,138,2.0,3.0,89,0.00,,,0.00,0,Wunderground v.1.15,2013-11-03 07:35:00,
2013-11-03 01:37:00,35.9,33.0,30.08,SE,138,2.0,3.0,89,0.00,,,0.00,0,Wunderground v.1.15,2013-11-03 07:37:00,
2013-11-03 01:39:00,36.0,33.1,30.08,SE,138,3.0,3.0,89,0.00,,,0.00,0,Wunderground v.1.15,2013-11-03 07:39:00,
2013-11-03 01:42:00,36.2,33.3,30.08,SE,138,2.0,2.0,89,0.00,,,0.00,0,Wunderground v.1.15,2013-11-03 07:42:00,
2013-11-03 01:45:00,36.2,33.3,30.08,SE,138,2.0,2.0,89,0.00,,,0.00,0,Wunderground v.1.15,2013-11-03 07:45:00,
2013-11-03 01:49:00,36.3,33.4,30.08,SE,138,1.0,2.0,89,0.00,,,0.00,0,Wunderground v.1.15,2013-11-03 07:49:00,
2013-11-03 01:50:00,36.4,33.5,30.08,SE,138,1.0,2.0,89,0.00,,,0.00,0,Wunderground v.1.15,2013-11-03 07:50:00,
2013-11-03 01:52:00,36.4,33.5,30.08,SE,138,1.0,2.0,89,0.00,,,0.00,0,Wunderground v.1.15,2013-11-03 07:52:00,
2013-11-03 01:54:00,36.3,33.4,30.08,SE,138,2.0,2.0,89,0.00,,,0.00,0,Wunderground v.1.15,2013-11-03 07:54:00,
2013-11-03 01:57:00,36.4,33.2,30.08,SE,138,3.0,3.0,88,0.00,,,0.00,0,Wunderground v.1.15,2013-11-03 07:57:00,
2013-11-03 02:00:00,36.6,33.7,30.08,SE,138,2.0,4.0,89,0.00,,,0.00,0,Wunderground v.1.15,2013-11-03 08:00:00,
2013-11-03 02:03:00,36.7,33.5,30.08,SE,138,1.0,3.0,88,0.00,,,0.00,0,Wunderground v.1.15,2013-11-03 08:03:00,
2013-11-03 02:06:00,36.8,33.6,30.08,SE,138,2.0,4.0,88,0.00,,,0.00,0,Wunderground v.1.15,2013-11-03 08:06:00,
2013-11-03 02:08:00,36.8,33.6,30.08,SE,138,1.0,4.0,88,0.00,,,0.00,0,Wunderground v.1.15,2013-11-03 08:08:00,
2013-11-03 02:11:00,36.7,33.5,30.08,SE,138,0.0,4.0,88,0.00,,,0.00,0,Wunderground v.1.15,2013-11-03 08:11:00,
2013-11-03 02:13:00,36.5,33.3,30.08,SE,138,2.0,3.0,88,0.00,,,0.00,0,Wunderground v.1.15,2013-11-03 08:13:00,
2013-11-03 02:14:00,36.5,33.3,30.08,SE,138,1.0,3.0,88,0.00,,,0.00,0,Wunderground v.1.15,2013-11-03 08:14:00,
2013-11-03 02:15:00,36.5,33.3,30.08,SE,138,1.0,3.0,88,0.00,,,0.00,0,Wunderground v.1.15,2013-11-03 08:15:00,
2013-11-03 02:16:00,36.5,33.3,30.08,SE,138,0.0,3.0,88,0.00,,,0.00,0,Wunderground v.1.15,2013-11-03 08:16:00,
2013-11-03 02:18:00,36.3,33.1,30.08,SE,138,2.0,3.0,88,0.00,,,0.00,0,Wunderground v.1.15,2013-11-03 08:18:00,
2013-11-03 02:19:00,36.3,33.1,30.08,SE,138,1.0,4.0,88,0.00,,,0.00,0,Wunderground v.1.15,2013-11-03 08:19:00,
2013-11-03 02:20:00,36.2,33.0,30.08,SE,138,0.0,4.0,88,0.00,,,0.00,0,Wunderground v.1.15,2013-11-03 08:20:00,
2013-11-03 02:21:00,36.2,33.0,30.08,SE,138,0.0,4.0,88,0.00,,,0.00,0,Wunderground v.1.15,2013-11-03 08:21:00,
2013-11-03 02:23:00,36.1,32.9,30.08,SE,138,3.0,4.0,88,0.00,,,0.00,0,Wunderground v.1.15,2013-11-03 08:23:00,
2013-11-03 02:25:00,36.0,32.8,30.08,SE,138,4.0,4.0,88,0.00,,,0.00,0,Wunderground v.1.15,2013-11-03 08:25:00,
2013-11-03 02:26:00,36.0,32.8,30.08,SE,138,2.0,4.0,88,0.00,,,0.00,0,Wunderground v.1.15,2013-11-03 08:26:00,
2013-11-03 02:27:00,36.0,32.8,30.08,SE,138,3.0,4.0,88,0.00,,,0.00,0,Wunderground v.1.15,2013-11-03 08:27:00,
2013-11-03 02:28:00,36.0,32.8,30.08,SE,139,1.0,4.0,88,0.00,,,0.00,0,Wunderground v.1.15,2013-11-03 08:28:00,
2013-11-03 02:30:00,35.9,32.7,30.08,SE,139,3.0,4.0,88,0.00,,,0.00,0,Wunderground v.1.15,2013-11-03 08:30:00,
2013-11-03 02:31:00,35.9,32.7,30.08,SE,139,3.0,4.0,88,0.00,,,0.00,0,Wunderground v.1.15,2013-11-03 08:31:00,
2013-11-03 02:32:00,35.8,32.9,30.08,SE,139,1.0,2.0,89,0.00,,,0.00,0,Wunderground v.1.15,2013-11-03 08:32:00,
2013-11-03 02:33:00,35.7,32.5,30.08,SE,139,2.0,3.0,88,0.00,,,0.00,0,Wunderground v.1.15,2013-11-03 08:33:00,
2013-11-03 02:34:00,35.7,32.5,30.08,SE,139,3.0,3.0,88,0.00,,,0.00,0,Wunderground v.1.15,2013-11-03 08:34:00,
2013-11-03 02:36:00,35.7,32.8,30.08,SE,139,2.0,4.0,89,0.00,,,0.00,0,Wunderground v.1.15,2013-11-03 08:36:00,
2013-11-03 02:37:00,35.8,32.9,30.08,SE,139,3.0,4.0,89,0.00,,,0.00,0,Wunderground v.1.15,2013-11-03 08:37:00,
2013-11-03 02:39:00,35.8,32.9,30.08,SE,139,3.0,4.0,89,0.00,,,0.00,0,Wunderground v.1.15,2013-11-03 08:39:00,
2013-11-03 02:41:00,35.9,33.0,30.08,SE,139,1.0,5.0,89,0.00,,,0.00,0,Wunderground v.1.15,2013-11-03 08:41:00,
2013-11-03 02:42:00,35.9,33.0,30.08,SE,139,3.0,3.0,89,0.00,,,0.00,0,Wunderground v.1.15,2013-11-03 08:42:00,
2013-11-03 02:44:00,35.9,33.0,30.08,SE,139,5.0,5.0,89,0.00,,,0.00,0,Wunderground v.1.15,2013-11-03 08:44:00,
2013-11-03 02:47:00,36.1,33.2,30.08,SE,138,2.0,5.0,89,0.00,,,0.00,0,Wunderground v.1.15,2013-11-03 08:47:00,
2013-11-03 02:48:00,36.2,33.3,30.08,SE,138,3.0,5.0,89,0.00,,,0.00,0,Wunderground v.1.15,2013-11-03 08:48:00,
2013-11-03 02:49:00,36.2,33.3,30.08,SE,138,2.0,5.0,89,0.00,,,0.00,0,Wunderground v.1.15,2013-11-03 08:49:00,
2013-11-03 02:52:00,36.2,33.0,30.08,SE,138,1.0,3.0,88,0.00,,,0.00,0,Wunderground v.1.15,2013-11-03 08:52:00,
2013-11-03 02:53:00,36.1,32.9,30.08,SE,138,1.0,3.0,88,0.00,,,0.00,0,Wunderground v.1.15,2013-11-03 08:53:00,
2013-11-03 02:54:00,36.0,32.8,30.08,SE,138,2.0,3.0,88,0.00,,,0.00,0,Wunderground v.1.15,2013-11-03 08:54:00,
2013-11-03 02:57:00,35.9,32.7,30.08,SE,138,2.0,4.0,88,0.00,,,0.00,0,Wunderground v.1.15,2013-11-03 08:57:00,
2013-11-03 02:58:00,35.8,32.6,30.08,SE,138,2.0,4.0,88,0.00,,,0.00,0,Wunderground v.1.15,2013-11-03 08:58:00,
2013-11-03 02:59:00,35.8,32.6,30.08,SE,138,1.0,4.0,88,0.00,,,0.00,0,Wunderground v.1.15,2013-11-03 08:59:00,
2013-11-03 03:00:00,35.7,32.5,30.08,SE,138,1.0,4.0,88,0.00,,,0.00,0,Wunderground v.1.15,2013-11-03 09:00:00,
2013-11-03 03:03:00,35.5,32.6,30.08,SE,138,2.0,2.0,89,0.00,,,0.00,0,Wunderground v.1.15,2013-11-03 09:03:00,
2013-11-03 03:04:00,35.5,32.6,30.07,SE,138,1.0,3.0,89,0.00,,,0.00,0,Wunderground v.1.15,2013-11-03 09:04:00,
2013-11-03 03:05:00,35.5,32.6,30.07,SE,138,1.0,3.0,89,0.00,,,0.00,0,Wunderground v.1.15,2013-11-03 09:05:00,
2013-11-03 03:08:00,35.7,32.8,30.08,SE,138,1.0,4.0,89,0.00,,,0.00,0,Wunderground v.1.15,2013-11-03 09:08:00,
2013-11-03 03:09:00,35.7,32.8,30.08,SE,138,3.0,4.0,89,0.00,,,0.00,0,Wunderground v.1.15,2013-11-03 09:09:00,
2013-11-03 03:10:00,35.8,32.9,30.08,SE,138,3.0,4.0,89,0.00,,,0.00,0,Wunderground v.1.15,2013-11-03 09:10:00,
2013-11-03 03:13:00,36.0,33.1,30.08,SE,138,3.0,3.0,89,0.00,,,0.00,0,Wunderground v.1.15,2013-11-03 09:13:00,
2013-11-03 03:14:00,35.9,33.0,30.08,SE,138,2.0,3.0,89,0.00,,,0.00,0,Wunderground v.1.15,2013-11-03 09:14:00,
2013-11-03 03:15:00,36.0,33.1,30.08,SE,138,1.0,3.0,89,0.00,,,0.00,0,Wunderground v.1.15,2013-11-03 09:15:00,
2013-11-03 03:19:00,36.0,33.1,30.07,SE,138,2.0,4.0,89,0.00,,,0.00,0,Wunderground v.1.15,2013-11-03 09:19:00,
2013-11-03 03:20:00,36.1,33.2,30.07,SE,138,4.0,4.0,89,0.00,,,0.00,0,Wunderground v.1.15,2013-11-03 09:20:00,
2013-11-03 03:24:00,36.4,33.5,30.07,SE,145,3.0,5.0,89,0.00,,,0.00,0,Wunderground v.1.15,2013-11-03 09:24:00,
2013-11-03 03:25:00,36.4,33.5,30.07,SE,144,3.0,5.0,89,0.00,,,0.00,0,Wunderground v.1.15,2013-11-03 09:25:00,
2013-11-03 03:26:00,36.5,33.6,30.07,SE,144,4.0,5.0,89,0.00,,,0.00,0,Wunderground v.1.15,2013-11-03 09:26:00,
2013-11-03 03:29:00,36.6,33.4,30.07,SE,142,4.0,5.0,88,0.00,,,0.00,0,Wunderground v.1.15,2013-11-03 09:29:00,
2013-11-03 03:30:00,36.7,33.5,30.07,SE,142,2.0,5.0,88,0.00,,,0.00,0,Wunderground v.1.15,2013-11-03 09:30:00,
2013-11-03 03:31:00,36.7,33.5,30.07,SE,146,3.0,7.0,88,0.00,,,0.00,0,Wunderground v.1.15,2013-11-03 09:31:00,
2013-11-03 03:35:00,36.7,33.5,30.07,SSE,147,3.0,5.0,88,0.00,,,0.00,0,Wunderground v.1.15,2013-11-03 09:35:00,
2013-11-03 03:36:00,36.6,33.4,30.07,SSE,147,2.0,5.0,88,0.00,,,0.00,0,Wunderground v.1.15,2013-11-03 09:36:00,
2013-11-03 03:40:00,36.3,33.1,30.07,SSE,148,3.0,5.0,88,0.00,,,0.00,0,Wunderground v.1.15,2013-11-03 09:40:00,
2013-11-03 03:41:00,36.3,33.1,30.07,SSE,148,4.0,5.0,88,0.00,,,0.00,0,Wunderground v.1.15,2013-11-03 09:41:00,
2013-11-03 03:42:00,36.2,33.0,30.07,SE,145,4.0,5.0,88,0.00,,,0.00,0,Wunderground v.1.15,2013-11-03 09:42:00,
2013-11-03 03:43:00,36.1,32.9,30.07,SE,144,3.0,4.0,88,0.00,,,0.00,0,Wunderground v.1.15,2013-11-03 09:43:00,
2013-11-03 03:45:00,35.9,32.7,30.07,SE,144,4.0,4.0,88,0.00,,,0.00,0,Wunderground v.1.15,2013-11-03 09:45:00,
2013-11-03 03:47:00,35.9,33.0,30.07,SE,141,3.0,4.0,89,0.00,,,0.00,0,Wunderground v.1.15,2013-11-03 09:47:00,
2013-11-03 03:48:00,35.8,32.9,30.07,SE,141,3.0,4.0,89,0.00,,,0.00,0,Wunderground v.1.15,2013-11-03 09:48:00,
2013-11-03 03:51:00,35.7,32.8,30.07,SE,140,2.0,4.0,89,0.00,,,0.00,0,Wunderground v.1.15,2013-11-03 09:51:00,
2013-11-03 03:52:00,35.6,32.7,30.07,SE,140,2.0,4.0,89,0.00,,,0.00,0,Wunderground v.1.15,2013-11-03 09:52:00,
2013-11-03 03:53:00,35.6,32.7,30.07,SE,140,0.0,3.0,89,0.00,,,0.00,0,Wunderground v.1.15,2013-11-03 09:53:00,
2013-11-03 03:56:00,35.5,32.6,30.07,SE,144,2.0,3.0,89,0.00,,,0.00,0,Wunderground v.1.15,2013-11-03 09:56:00,
2013-11-03 03:57:00,35.5,32.6,30.07,SE,146,3.0,4.0,89,0.00,,,0.00,0,Wunderground v.1.15,2013-11-03 09:57:00,
2013-11-03 03:58:00,35.5,32.6,30.07,SE,146,2.0,4.0,89,0.00,,,0.00,0,Wunderground v.1.15,2013-11-03 09:58:00,
2013-11-03 03:59:00,35.5,32.6,30.07,SSE,147,1.0,4.0,89,0.00,,,0.00,0,Wunderground v.1.15,2013-11-03 09:59:00,
2013-11-03 04:01:00,35.5,32.6,30.07,SSE,147,2.0,4.0,89,0.00,,,0.00,0,Wunderground v.1.15,2013-11-03 10:01:00,
2013-11-03 04:02:00,35.5,32.6,30.07,SSE,147,4.0,4.0,89,0.00,,,0.00,0,Wunderground v.1.15,2013-11-03 10:02:00,
2013-11-03 04:03:00,35.5,32.6,30.07,SE,146,3.0,4.0,89,0.00,,,0.00,0,Wunderground v.1.15,2013-11-03 10:03:00,
2013-11-03 04:04:00,35.5,32.6,30.07,SE,146,2.0,4.0,89,0.00,,,0.00,0,Wunderground v.1.15,2013-11-03 10:04:00,
2013-11-03 04:07:00,35.4,32.5,30.07,SE,146,2.0,4.0,89,0.00,,,0.00,0,Wunderground v.1.15,2013-11-03 10:07:00,
2013-11-03 04:09:00,35.4,32.5,30.07,SE,146,1.0,4.0,89,0.00,,,0.00,0,Wunderground v.1.15,2013-11-03 10:09:00,
2013-11-03 04:12:00,35.4,32.5,30.07,SE,146,2.0,4.0,89,0.00,,,0.00,0,Wunderground v.1.15,2013-11-03 10:12:00,
2013-11-03 04:14:00,35.5,32.6,30.07,SSE,148,1.0,4.0,89,0.00,,,0.00,0,Wunderground v.1.15,2013-11-03 10:14:00,
2013-11-03 04:17:00,35.5,32.6,30.07,SSE,151,2.0,4.0,89,0.00,,,0.00,0,Wunderground v.1.15,2013-11-03 10:17:00,
2013-11-03 04:19:00,35.5,32.6,30.07,SSE,151,3.0,4.0,89,0.00,,,0.00,0,Wunderground v.1.15,2013-11-03 10:19:00,
2013-11-03 04:20:00,35.5,32.6,30.07,SSE,151,2.0,4.0,89,0.00,,,0.00,0,Wunderground v.1.15,2013-11-03 10:20:00,
2013-11-03 04:22:00,35.4,32.5,30.07,SSE,153,1.0,1.0,89,0.00,,,0.00,0,Wunderground v.1.15,2013-11-03 10:22:00,
2013-11-03 04:23:00,35.4,32.5,30.07,SSE,153,3.0,3.0,89,0.00,,,0.00,0,Wunderground v.1.15,2013-11-03 10:23:00,
2013-11-03 04:24:00,35.5,32.9,30.07,SSE,153,0.0,3.0,90,0.00,,,0.00,0,Wunderground v.1.15,2013-11-03 10:24:00,
2013-11-03 04:25:00,35.5,32.9,30.08,SSE,153,1.0,3.0,90,0.00,,,0.00,0,Wunderground v.1.15,2013-11-03 10:25:00,
2013-11-03 04:28:00,35.5,32.9,30.07,SSE,153,3.0,4.0,90,0.00,,,0.00,0,Wunderground v.1.15,2013-11-03 10:28:00,
2013-11-03 04:29:00,35.5,32.6,30.07,SSE,153,1.0,4.0,89,0.00,,,0.00,0,Wunderground v.1.15,2013-11-03 10:29:00,
2013-11-03 04:30:00,35.5,32.6,30.07,SSE,153,3.0,4.0,89,0.00,,,0.00,0,Wunderground v.1.15,2013-11-03 10:30:00,
2013-11-03 04:31:00,35.5,32.6,30.07,SSE,153,2.0,4.0,89,0.00,,,0.00,0,Wunderground v.1.15,2013-11-03 10:31:00,
2013-11-03 04:33:00,35.4,32.5,30.07,SSE,153,3.0,3.0,89,0.00,,,0.00,0,Wunderground v.1.15,2013-11-03 10:33:00,
2013-11-03 04:34:00,35.4,32.5,30.08,SSE,152,0.0,3.0,89,0.00,,,0.00,0,Wunderground v.1.15,2013-11-03 10:34:00,
2013-11-03 04:35:00,35.3,32.4,30.08,SSE,152,0.0,3.0,89,0.00,,,0.00,0,Wunderground v.1.15,2013-11-03 10:35:00,
2013-11-03 04:36:00,35.2,32.3,30.08,SSE,152,1.0,3.0,89,0.00,,,0.00,0,Wunderground v.1.15,2013-11-03 10:36:00,
2013-11-03 04:38:00,35.0,32.1,30.08,SSE,152,0.0,3.0,89,0.00,,,0.00,0,Wunderground v.1.15,2013-11-03 10:38:00,
2013-11-03 04:39:00,35.0,32.1,30.08,SSE,152,1.0,3.0,89,0.00,,,0.00,0,Wunderground v.1.15,2013-11-03 10:39:00,
2013-11-03 04:40:00,34.9,32.0,30.08,SSE,151,0.0,3.0,89,0.00,,,0.00,0,Wunderground v.1.15,2013-11-03 10:40:00,
2013-11-03 04:41:00,34.9,32.0,30.08,SSE,151,3.0,3.0,89,0.00,,,0.00,0,Wunderground v.1.15,2013-11-03 10:41:00,
2013-11-03 04:43:00,34.9,32.3,30.08,SSE,151,4.0,4.0,90,0.00,,,0.00,0,Wunderground v.1.15,2013-11-03 10:43:00,
2013-11-03 04:44:00,34.9,32.3,30.08,SSE,151,2.0,4.0,90,0.00,,,0.00,0,Wunderground v.1.15,2013-11-03 10:44:00,
2013-11-03 04:46:00,34.9,32.3,30.08,SSE,151,3.0,4.0,90,0.00,,,0.00,0,Wunderground v.1.15,2013-11-03 10:46:00,
2013-11-03 04:47:00,34.8,32.2,30.08,SSE,150,3.0,4.0,90,0.00,,,0.00,0,Wunderground v.1.15,2013-11-03 10:47:00,
2013-11-03 04:48:00,34.9,32.3,30.07,SSE,150,2.0,5.0,90,0.00,,,0.00,0,Wunderground v.1.15,2013-11-03 10:48:00,
2013-11-03 04:49:00,34.9,32.3,30.07,SSE,150,2.0,5.0,90,0.00,,,0.00,0,Wunderground v.1.15,2013-11-03 10:49:00,
2013-11-03 04:51:00,34.9,32.3,30.07,SSE,149,1.0,5.0,90,0.00,,,0.00,0,Wunderground v.1.15,2013-11-03 10:51:00,
2013-11-03 04:52:00,34.9,32.3,30.07,SSE,149,2.0,3.0,90,0.00,,,0.00,0,Wunderground v.1.15,2013-11-03 10:52:00,
2013-11-03 04:53:00,34.9,32.3,30.07,SSE,149,3.0,3.0,90,0.00,,,0.00,0,Wunderground v.1.15,2013-11-03 10:53:00,
2013-11-03 04:54:00,35.0,32.4,30.07,SSE,150,3.0,4.0,90,0.00,,,0.00,0,Wunderground v.1.15,2013-11-03 10:54:00,
2013-11-03 04:55:00,35.0,32.4,30.07,SSE,150,3.0,4.0,90,0.00,,,0.00,0,Wunderground v.1.15,2013-11-03 10:55:00,
2013-11-03 04:56:00,35.1,32.5,30.07,SSE,148,3.0,4.0,90,0.00,,,0.00,0,Wunderground v.1.15,2013-11-03 10:56:00,
2013-11-03 04:58:00,35.2,32.6,30.07,SSE,148,2.0,4.0,90,0.00,,,0.00,0,Wunderground v.1.15,2013-11-03 10:58:00,
2013-11-03 04:59:00,35.3,32.7,30.07,SSE,148,1.0,4.0,90,0.00,,,0.00,0,Wunderground v.1.15,2013-11-03 10:59:00,
2013-11-03 05:00:00,35.3,32.7,30.07,SSE,148,3.0,5.0,90,0.00,,,0.00,0,Wunderground v.1.15,2013-11-03 11:00:00,
2013-11-03 05:01:00,35.4,32.8,30.07,SSE,148,4.0,6.0,90,0.00,,,0.00,0,Wunderground v.1.15,2013-11-03 11:01:00,
2013-11-03 05:02:00,35.5,32.9,30.07,SSE,148,3.0,3.0,90,0.00,,,0.00,0,Wunderground v.1.15,2013-11-03 11:02:00,
2013-11-03 05:03:00,35.5,32.9,30.07,SSE,148,3.0,4.0,90,0.00,,,0.00,0,Wunderground v.1.15,2013-11-03 11:03:00,
2013-11-03 05:04:00,35.6,33.0,30.07,SSE,148,3.0,4.0,90,0.00,,,0.00,0,Wunderground v.1.15,2013-11-03 11:04:00,
2013-11-03 05:05:00,35.6,33.0,30.07,SE,144,3.0,6.0,90,0.00,,,0.00,0,Wunderground v.1.15,2013-11-03 11:05:00,
2013-11-03 05:06:00,35.7,33.1,30.07,SE,144,4.0,6.0,90,0.00,,,0.00,0,Wunderground v.1.15,2013-11-03 11:06:00,
2013-11-03 05:08:00,35.8,33.2,30.07,SE,142,4.0,7.0,90,0.00,,,0.00,0,Wunderground v.1.15,2013-11-03 11:08:00,
2013-11-03 05:09:00,35.8,33.2,30.07,SE,140,2.0,7.0,90,0.00,,,0.00,0,Wunderground v.1.15,2013-11-03 11:09:00,
2013-11-03 05:10:00,36.0,33.4,30.07,SE,140,4.0,7.0,90,0.00,,,0.00,0,Wunderground v.1.15,2013-11-03 11:10:00,
2013-11-03 05:12:00,36.1,33.2,30.07,SE,145,4.0,7.0,89,0.00,,,0.00,0,Wunderground v.1.15,2013-11-03 11:12:00,
2013-11-03 05:13:00,36.2,33.3,30.07,SE,143,2.0,6.0,89,0.00,,,0.00,0,Wunderground v.1.15,2013-11-03 11:13:00,
2013-11-03 05:14:00,36.2,33.3,30.07,SE,143,4.0,6.0,89,0.00,,,0.00,0,Wunderground v.1.15,2013-11-03 11:14:00,
2013-11-03 05:15:00,36.2,33.3,30.07,SSE,148,5.0,7.0,89,0.00,,,0.00,0,Wunderground v.1.15,2013-11-03 11:15:00,
2013-11-03 05:16:00,36.2,33.3,30.07,SSE,152,5.0,7.0,89,0.00,,,0.00,0,Wunderground v.1.15,2013-11-03 11:16:00,
2013-11-03 05:17:00,36.2,33.3,30.07,SSE,150,2.0,7.0,89,0.00,,,0.00,0,Wunderground v.1.15,2013-11-03 11:17:00,
2013-11-03 05:19:00,36.4,33.5,30.07,SE,140,6.0,7.0,89,0.00,,,0.00,0,Wunderground v.1.15,2013-11-03 11:19:00,
2013-11-03 05:20:00,36.4,33.5,30.07,SE,141,5.0,7.0,89,0.00,,,0.00,0,Wunderground v.1.15,2013-11-03 11:20:00,
2013-11-03 05:21:00,36.4,33.5,30.07,SE,145,4.0,7.0,89,0.00,,,0.00,0,Wunderground v.1.15,2013-11-03 11:21:00,
2013-11-03 05:22:00,36.5,33.6,30.07,SE,144,5.0,8.0,89,0.00,,,0.00,0,Wunderground v.1.15,2013-11-03 11:22:00,
2013-11-03 05:25:00,36.6,33.4,30.07,SSE,150,5.0,7.0,88,0.00,,,0.00,0,Wunderground v.1.15,2013-11-03 11:25:00,
2013-11-03 05:26:00,36.6,33.4,30.07,SE,139,5.0,7.0,88,0.00,,,0.00,0,Wunderground v.1.15,2013-11-03 11:26:00,
2013-11-03 05:27:00,36.6,33.4,30.06,SE,141,4.0,7.0,88,0.00,,,0.00,0,Wunderground v.1.15,2013-11-03 11:27:00,
2013-11-03 05:30:00,36.8,33.6,30.06,SE,144,4.0,8.0,88,0.00,,,0.00,0,Wunderground v.1.15,2013-11-03 11:30:00,
2013-11-03 05:31:00,36.8,33.6,30.06,SE,144,4.0,8.0,88,0.00,,,0.00,0,Wunderground v.1.15,2013-11-03 11:31:00,
2013-11-03 05:32:00,36.9,33.7,30.06,SSE,153,6.0,8.0,88,0.00,,,0.00,0,Wunderground v.1.15,2013-11-03 11:32:00,
2013-11-03 05:35:00,37.1,33.9,30.07,SE,141,9.0,9.0,88,0.00,,,0.00,0,Wunderground v.1.15,2013-11-03 11:35:00,
2013-11-03 05:36:00,37.1,33.6,30.07,SE,141,3.0,9.0,87,0.00,,,0.00,0,Wunderground v.1.15,2013-11-03 11:36:00,
2013-11-03 05:37:00,37.2,33.7,30.06,SE,143,6.0,9.0,87,0.00,,,0.00,0,Wunderground v.1.15,2013-11-03 11:37:00,
2013-11-03 05:38:00,37.2,33.7,30.07,SE,138,6.0,9.0,87,0.00,,,0.00,0,Wunderground v.1.15,2013-11-03 11:38:00,
2013-11-03 05:41:00,37.2,33.7,30.06,SSE,147,7.0,10.0,87,0.00,,,0.00,0,Wunderground v.1.15,2013-11-03 11:41:00,
2013-11-03 05:42:00,37.2,33.7,30.07,SE,142,7.0,7.0,87,0.00,,,0.00,0,Wunderground v.1.15,2013-11-03 11:42:00,
2013-11-03 05:44:00,37.3,33.8,30.06,SE,142,7.0,10.0,87,0.00,,,0.00,0,Wunderground v.1.15,2013-11-03 11:44:00,
2013-11-03 05:46:00,37.2,33.7,30.07,SE,142,5.0,10.0,87,0.00,,,0.00,0,Wunderground v.1.15,2013-11-03 11:46:00,
2013-11-03 05:47:00,37.2,33.7,30.07,SSE,155,7.0,10.0,87,0.00,,,0.00,0,Wunderground v.1.15,2013-11-03 11:47:00,
2013-11-03 05:48:00,37.2,33.7,30.07,SSE,148,5.0,10.0,87,0.00,,,0.00,0,Wunderground v.1.15,2013-11-03 11:48:00,
2013-11-03 05:49:00,37.2,33.7,30.07,SSE,148,5.0,10.0,87,0.00,,,0.00,0,Wunderground v.1.15,2013-11-03 11:49:00,
2013-11-03 05:51:00,37.1,33.3,30.07,SE,146,3.0,10.0,86,0.00,,,0.00,0,Wunderground v.1.15,2013-11-03 11:51:00,
2013-11-03 05:52:00,37.0,33.2,30.07,SE,144,4.0,6.0,86,0.00,,,0.00,0,Wunderground v.1.15,2013-11-03 11:52:00,
2013-11-03 05:53:00,36.9,33.4,30.07,SSE,148,7.0,7.0,87,0.00,,,0.00,0,Wunderground v.1.15,2013-11-03 11:53:00,
2013-11-03 05:54:00,36.8,33.3,30.07,SE,140,6.0,8.0,87,0.00,,,0.00,0,Wunderground v.1.15,2013-11-03 11:54:00,
2013-11-03 05:57:00,36.6,33.1,30.07,SSE,148,5.0,8.0,87,0.00,,,0.00,0,Wunderground v.1.15,2013-11-03 11:57:00,
2013-11-03 05:59:00,36.6,33.4,30.07,SE,145,7.0,8.0,88,0.00,,,0.00,0,Wunderground v.1.15,2013-11-03 11:59:00,
2013-11-03 06:00:00,36.5,33.3,30.07,SSE,151,6.0,8.0,88,0.00,,,0.00,0,Wunderground v.1.15,2013-11-03 12:00:00,
2013-11-03 06:02:00,36.5,33.3,30.07,SSE,150,4.0,8.0,88,0.00,,,0.00,0,Wunderground v.1.15,2013-11-03 12:02:00,
2013-11-03 06:04:00,36.4,33.2,30.07,SSE,148,4.0,7.0,88,0.00,,,0.00,0,Wunderground v.1.15,2013-11-03 12:04:00,
2013-11-03 06:06:00,36.3,33.1,30.07,SSE,148,5.0,7.0,88,0.00,,,0.00,0,Wunderground v.1.15,2013-11-03 12:06:00,
2013-11-03 06:07:00,36.3,33.1,30.06,SE,146,3.0,7.0,88,0.00,,,0.00,0,Wunderground v.1.15,2013-11-03 12:07:00,
2013-11-03 06:08:00,36.3,33.1,30.06,SE,145,5.0,7.0,88,0.00,,,0.00,0,Wunderground v.1.15,2013-11-03 12:08:00,
2013-11-03 06:09:00,36.2,33.0,30.07,SSE,147,6.0,7.0,88,0.00,,,0.00,0,Wunderground v.1.15,2013-11-03 12:09:00,
2013-11-03 06:11:00,36.2,33.0,30.07,SE,143,6.0,7.0,88,0.00,,,0.00,0,Wunderground v.1.15,2013-11-03 12:11:00,
2013-11-03 06:12:00,36.2,33.0,30.06,SE,142,5.0,5.0,88,0.00,,,0.00,0,Wunderground v.1.15,2013-11-03 12:12:00,
2013-11-03 06:13:00,36.2,33.0,30.06,SSE,151,6.0,7.0,88,0.00,,,0.00,0,Wunderground v.1.15,2013-11-03 12:13:00,
2013-11-03 06:14:00,36.2,33.0,30.06,SE,146,6.0,8.0,88,0.00,,,0.00,0,Wunderground v.1.15,2013-11-03 12:14:00,
2013-11-03 06:15:00,36.2,33.0,30.07,SSE,148,4.0,8.0,88,0.00,,,0.00,0,Wunderground v.1.15,2013-11-03 12:15:00,
2013-11-03 06:16:00,36.2,33.0,30.07,SSE,147,4.0,8.0,88,0.00,,,0.00,0,Wunderground v.1.15,2013-11-03 12:16:00,
2013-11-03 06:17:00,36.2,33.0,30.07,SSE,150,7.0,8.0,88,0.00,,,0.00,0,Wunderground v.1.15,2013-11-03 12:17:00,
2013-11-03 06:18:00,36.2,33.0,30.07,SSE,148,5.0,8.0,88,0.00,,,0.00,0,Wunderground v.1.15,2013-11-03 12:18:00,
2013-11-03 06:19:00,36.2,33.0,30.07,SSE,152,7.0,8.0,88,0.00,,,0.00,0,Wunderground v.1.15,2013-11-03 12:19:00,
2013-11-03 06:20:00,36.2,33.0,30.07,SSE,152,7.0,8.0,88,0.00,,,0.00,0,Wunderground v.1.15,2013-11-03 12:20:00,
2013-11-03 06:21:00,36.2,33.0,30.07,SSE,148,5.0,8.0,88,0.00,,,0.00,0,Wunderground v.1.15,2013-11-03 12:21:00,
2013-11-03 06:22:00,36.2,33.0,30.07,SSE,148,7.0,7.0,88,0.00,,,0.00,0,Wunderground v.1.15,2013-11-03 12:22:00,
2013-11-03 06:23:00,36.2,33.0,30.06,SSE,148,4.0,7.0,88,0.00,,,0.00,0,Wunderground v.1.15,2013-11-03 12:23:00,
2013-11-03 06:24:00,36.2,33.0,30.07,SSE,147,4.0,7.0,88,0.00,,,0.00,0,Wunderground v.1.15,2013-11-03 12:24:00,
2013-11-03 06:25:00,36.1,32.9,30.07,SE,146,5.0,7.0,88,0.00,,,0.00,0,Wunderground v.1.15,2013-11-03 12:25:00,
2013-11-03 06:26:00,36.1,32.9,30.06,SE,146,3.0,7.0,88,0.00,,,0.00,0,Wunderground v.1.15,2013-11-03 12:26:00,
2013-11-03 06:27:00,36.1,32.9,30.06,SSE,148,6.0,7.0,88,0.00,,,0.00,0,Wunderground v.1.15,2013-11-03 12:27:00,
2013-11-03 06:28:00,36.1,32.9,30.06,SE,146,5.0,7.0,88,0.00,,,0.00,0,Wunderground v.1.15,2013-11-03 12:28:00,
2013-11-03 06:29:00,36.1,32.9,30.06,SE,146,5.0,7.0,88,0.00,,,0.00,0,Wunderground v.1.15,2013-11-03 12:29:00,
2013-11-03 06:30:00,36.1,32.9,30.06,SE,146,6.0,7.0,88,0.00,,,0.00,0,Wunderground v.1.15,2013-11-03 12:30:00,
2013-11-03 06:31:00,36.0,32.8,30.06,SSE,147,4.0,7.0,88,0.00,,,0.00,0,Wunderground v.1.15,2013-11-03 12:31:00,
2013-11-03 06:32:00,36.0,33.1,30.06,SE,146,3.0,5.0,89,0.00,,,0.00,0,Wunderground v.1.15,2013-11-03 12:32:00,
2013-11-03 06:33:00,35.9,32.7,30.06,SE,144,3.0,5.0,88,0.00,,,0.00,0,Wunderground v.1.15,2013-11-03 12:33:00,
2013-11-03 06:34:00,35.9,33.0,30.06,SE,144,5.0,5.0,89,0.00,,,0.00,0,Wunderground v.1.15,2013-11-03 12:34:00,
2013-11-03 06:35:00,35.9,33.0,30.06,SE,144,4.0,7.0,89,0.00,,,0.00,0,Wunderground v.1.15,2013-11-03 12:35:00,
2013-11-03 06:36:00,35.8,32.9,30.06,SE,144,4.0,7.0,89,0.00,,,0.00,0,Wunderground v.1.15,2013-11-03 12:36:00,
2013-11-03 06:38:00,35.7,32.8,30.06,SSE,147,4.0,7.0,89,0.00,,,0.00,0,Wunderground v.1.15,2013-11-03 12:38:00,
2013-11-03 06:39:00,35.7,32.8,30.06,SSE,147,4.0,7.0,89,0.00,,,0.00,0,Wunderground v.1.15,2013-11-03 12:39:00,
2013-11-03 06:40:00,35.7,32.8,30.06,SE,146,6.0,7.0,89,0.00,,,0.00,0,Wunderground v.1.15,2013-11-03 12:40:00,
2013-11-03 06:41:00,35.7,32.8,30.06,SE,144,5.0,8.0,89,0.00,,,0.00,0,Wunderground v.1.15,2013-11-03 12:41:00,
2013-11-03 06:43:00,35.7,32.8,30.06,SSE,147,4.0,6.0,89,0.00,,,0.00,0,Wunderground v.1.15,2013-11-03 12:43:00,
2013-11-03 06:44:00,35.7,32.8,30.06,SE,146,6.0,6.0,89,0.00,,,0.00,0,Wunderground v.1.15,2013-11-03 12:44:00,
2013-11-03 06:46:00,35.8,32.9,30.06,SE,138,5.0,8.0,89,0.00,,,0.00,0,Wunderground v.1.15,2013-11-03 12:46:00,
2013-11-03 06:47:00,35.9,33.0,30.06,SE,140,4.0,8.0,89,0.00,,,0.00,5,Wunderground v.1.15,2013-11-03 12:47:00,
2013-11-03 06:48:00,36.0,33.1,30.06,SE,142,6.0,8.0,89,0.00,,,0.00,5,Wunderground v.1.15,2013-11-03 12:48:00,
2013-11-03 06:49:00,36.1,33.2,30.06,SE,141,7.0,8.0,89,0.00,,,0.00,5,Wunderground v.1.15,2013-11-03 12:49:00,
2013-11-03 06:50:00,36.2,33.3,30.06,SE,144,6.0,9.0,89,0.00,,,0.00,5,Wunderground v.1.15,2013-11-03 12:50:00,
2013-11-03 06:52:00,36.4,33.5,30.06,SE,144,7.0,10.0,89,0.00,,,0.00,5,Wunderground v.1.15,2013-11-03 12:52:00,
2013-11-03 06:53:00,36.6,33.7,30.06,SE,142,5.0,7.0,89,0.00,,,0.00,7,Wunderground v.1.15,2013-11-03 12:53:00,
2013-11-03 06:54:00,36.7,33.8,30.06,SE,144,7.0,10.0,89,0.00,,,0.00,7,Wunderground v.1.15,2013-11-03 12:54:00,
2013-11-03 06:55:00,36.8,33.6,30.06,SSE,148,10.0,10.0,88,0.00,,,0.00,7,Wunderground v.1.15,2013-11-03 12:55:00,
2013-11-03 06:57:00,36.9,33.7,30.06,SE,143,6.0,10.0,88,0.00,,,0.00,9,Wunderground v.1.15,2013-11-03 12:57:00,
2013-11-03 06:58:00,37.0,33.8,30.06,SE,145,6.0,10.0,88,0.00,,,0.00,11,Wunderground v.1.15,2013-11-03 12:58:00,
2013-11-03 07:00:00,37.1,33.9,30.06,SE,146,10.0,10.0,88,0.00,,,0.00,11,Wunderground v.1.15,2013-11-03 13:00:00,
2013-11-03 07:02:00,37.3,34.1,30.06,SSE,153,9.0,11.0,88,0.00,,,0.00,12,Wunderground v.1.15,2013-11-03 13:02:00,
2013-11-03 07:03:00,37.4,33.9,30.06,SSE,151,6.0,10.0,87,0.00,,,0.00,12,Wunderground v.1.15,2013-11-03 13:03:00,
2013-11-03 07:05:00,37.6,34.1,30.05,SE,142,6.0,12.0,87,0.00,,,0.00,14,Wunderground v.1.15,2013-11-03 13:05:00,
2013-11-03 07:06:00,37.6,34.1,30.05,SE,143,7.0,12.0,87,0.00,,,0.00,14,Wunderground v.1.15,2013-11-03 13:06:00,
2013-11-03 07:08:00,37.9,34.1,30.05,SE,134,9.0,12.0,86,0.00,,,0.00,16,Wunderground v.1.15,2013-11-03 13:08:00,
2013-11-03 07:11:00,38.1,34.3,30.05,SE,142,8.0,12.0,86,0.00,,,0.00,18,Wunderground v.1.15,2013-11-03 13:11:00,
2013-11-03 07:13:00,38.3,34.2,30.05,SE,144,8.0,11.0,85,0.00,,,0.00,19,Wunderground v.1.15,2013-11-03 13:13:00,
2013-11-03 07:14:00,38.4,34.3,30.05,SE,142,10.0,11.0,85,0.00,,,0.00,19,Wunderground v.1.15,2013-11-03 13:14:00,
2013-11-03 07:16:00,38.4,34.3,30.05,SE,146,6.0,12.0,85,0.00,,,0.00,21,Wunderground v.1.15,2013-11-03 13:16:00,
2013-11-03 07:18:00,38.4,34.3,30.05,SE,136,7.0,12.0,85,0.00,,,0.00,25,Wunderground v.1.15,2013-11-03 13:18:00,
2013-11-03 07:19:00,38.4,34.3,30.05,SE,138,9.0,12.0,85,0.00,,,0.00,25,Wunderground v.1.15,2013-11-03 13:19:00,
2013-11-03 07:21:00,38.4,34.3,30.05,SSE,150,12.0,12.0,85,0.00,,,0.00,28,Wunderground v.1.15,2013-11-03 13:21:00,
2013-11-03 07:23:00,38.5,34.4,30.05,SSE,155,7.0,11.0,85,0.00,,,0.00,30,Wunderground v.1.15,2013-11-03 13:23:00,
2013-11-03 07:24:00,38.5,34.4,30.05,SE,136,8.0,11.0,85,0.00,,,0.00,33,Wunderground v.1.15,2013-11-03 13:24:00,
2013-11-03 07:27:00,38.6,34.5,30.05,SE,145,6.0,11.0,85,0.00,,,0.00,35,Wunderground v.1.15,2013-11-03 13:27:00,
2013-11-03 07:29:00,38.6,34.5,30.05,SSE,153,6.0,11.0,85,0.00,,,0.00,44,Wunderground v.1.15,2013-11-03 13:29:00,
2013-11-03 07:30:00,38.6,34.5,30.05,ESE,119,9.0,11.0,85,0.00,,,0.00,47,Wunderground v.1.15,2013-11-03 13:30:00,
2013-11-03 07:32:00,38.7,34.6,30.05,SSE,150,9.0,9.0,85,0.00,,,0.00,51,Wunderground v.1.15,2013-11-03 13:32:00,
2013-11-03 07:33:00,38.7,34.6,30.05,SSE,151,9.0,9.0,85,0.00,,,0.00,53,Wunderground v.1.15,2013-11-03 13:33:00,
2013-11-03 07:34:00,38.9,34.8,30.05,SE,145,10.0,11.0,85,0.00,,,0.00,54,Wunderground v.1.15,2013-11-03 13:34:00,
2013-11-03 07:35:00,39.0,34.9,30.05,SSE,159,8.0,11.0,85,0.00,,,0.00,60,Wunderground v.1.15,2013-11-03 13:35:00,
2013-11-03 07:38:00,39.1,35.0,30.05,SSE,150,8.0,12.0,85,0.00,,,0.00,63,Wunderground v.1.15,2013-11-03 13:38:00,
2013-11-03 07:39:00,39.2,35.1,30.05,SSE,153,11.0,12.0,85,0.00,,,0.00,69,Wunderground v.1.15,2013-11-03 13:39:00,
2013-11-03 07:42:00,39.4,35.3,30.05,SSE,153,9.0,12.0,85,0.00,,,0.00,79,Wunderground v.1.15,2013-11-03 13:42:00,
2013-11-03 07:43:00,39.5,35.4,30.05,SSE,150,10.0,11.0,85,0.00,,,0.00,79,Wunderground v.1.15,2013-11-03 13:43:00,
2013-11-03 07:44:00,39.5,35.4,30.05,SSE,149,11.0,12.0,85,0.00,,,0.00,83,Wunderground v.1.15,2013-11-03 13:44:00,
2013-11-03 07:47:00,39.8,35.7,30.05,SE,142,11.0,13.0,85,0.00,,,0.00,95,Wunderground v.1.15,2013-11-03 13:47:00,
2013-11-03 07:48:00,39.8,35.4,30.05,SSE,156,8.0,13.0,84,0.00,,,0.00,95,Wunderground v.1.15,2013-11-03 13:48:00,
2013-11-03 07:49:00,39.9,35.5,30.05,SE,142,6.0,13.0,84,0.00,,,0.00,100,Wunderground v.1.15,2013-11-03 13:49:00,
2013-11-03 07:50:00,40.0,35.9,30.05,SSE,152,7.0,13.0,85,0.00,,,0.00,104,Wunderground v.1.15,2013-11-03 13:50:00,
2013-11-03 07:52:00,40.1,35.7,30.05,SE,136,6.0,13.0,84,0.00,,,0.00,111,Wunderground v.1.15,2013-11-03 13:52:00,
2013-11-03 07:53:00,40.1,35.7,30.05,SE,142,7.0,13.0,84,0.00,,,0.00,111,Wunderground v.1.15,2013-11-03 13:53:00,
2013-11-03 07:54:00,40.2,35.8,30.05,SSE,160,11.0,13.0,84,0.00,,,0.00,116,Wunderground v.1.15,2013-11-03 13:54:00,
2013-11-03 07:55:00,40.3,35.8,30.06,SE,129,11.0,13.0,84,0.00,,,0.00,120,Wunderground v.1.15,2013-11-03 13:55:00,
2013-11-03 07:58:00,40.4,35.6,30.06,SSE,150,10.0,14.0,83,0.00,,,0.00,128,Wunderground v.1.15,2013-11-03 13:58:00,
2013-11-03 07:59:00,40.5,36.0,30.06,SSE,148,6.0,14.0,84,0.00,,,0.00,135,Wunderground v.1.15,2013-11-03 13:59:00,
2013-11-03 08:00:00,40.5,36.0,30.06,SE,138,10.0,14.0,84,0.00,,,0.00,135,Wunderground v.1.15,2013-11-03 14:00:00,
2013-11-03 08:01:00,40.6,36.1,30.06,SE,139,10.0,14.0,84,0.00,,,0.00,139,Wunderground v.1.15,2013-11-03 14:01:00,
2013-11-03 08:03:00,40.8,36.0,30.06,SSE,159,6.0,12.0,83,0.00,,,0.00,148,Wunderground v.1.15,2013-11-03 14:03:00,
2013-11-03 08:04:00,40.9,36.1,30.06,SE,143,8.0,12.0,83,0.00,,,0.00,153,Wunderground v.1.15,2013-11-03 14:04:00,
2013-11-03 08:05:00,41.0,36.2,30.06,SSE,148,8.0,12.0,83,0.00,,,0.00,153,Wunderground v.1.15,2013-11-03 14:05:00,
2013-11-03 08:06:00,41.1,36.3,30.06,SE,143,8.0,12.0,83,0.00,,,0.00,156,Wunderground v.1.15,2013-11-03 14:06:00,
2013-11-03 08:09:00,41.3,36.5,30.06,SSE,157,11.0,12.0,83,0.00,,,0.00,171,Wunderground v.1.15,2013-11-03 14:09:00,
2013-11-03 08:10:00,41.4,36.6,30.06,SSE,155,6.0,12.0,83,0.00,,,0.00,171,Wunderground v.1.15,2013-11-03 14:10:00,
2013-11-03 08:11:00,41.4,36.3,30.06,SSE,159,8.0,12.0,82,0.00,,,0.00,176,Wunderground v.1.15,2013-11-03 14:11:00,
2013-11-03 08:15:00,41.8,37.0,30.06,SSE,155,9.0,14.0,83,0.00,,,0.00,186,Wunderground v.1.15,2013-11-03 14:15:00,
2013-11-03 08:16:00,42.0,36.9,30.06,SSE,154,10.0,14.0,82,0.00,,,0.00,193,Wunderground v.1.15,2013-11-03 14:16:00,
2013-11-03 08:20:00,42.4,37.0,30.06,SSE,155,5.0,14.0,81,0.00,,,0.00,204,Wunderground v.1.15,2013-11-03 14:20:00,
2013-11-03 08:21:00,42.5,37.1,30.06,SSE,161,9.0,14.0,81,0.00,,,0.00,206,Wunderground v.1.15,2013-11-03 14:21:00,
2013-11-03 08:25:00,42.8,37.4,30.06,SSE,155,10.0,12.0,81,0.00,,,0.00,220,Wunderground v.1.15,2013-11-03 14:25:00,
2013-11-03 08:26:00,42.8,37.4,30.06,SE,132,8.0,12.0,81,0.00,,,0.00,221,Wunderground v.1.15,2013-11-03 14:26:00,
2013-11-03 08:30:00,43.2,37.4,30.06,SSE,151,8.0,12.0,80,0.00,,,0.00,234,Wunderground v.1.15,2013-11-03 14:30:00,
2013-11-03 08:31:00,43.3,37.5,30.06,SE,145,11.0,14.0,80,0.00,,,0.00,237,Wunderground v.1.15,2013-11-03 14:31:00,
2013-11-03 08:32:00,43.3,37.5,30.06,SE,142,12.0,14.0,80,0.00,,,0.00,239,Wunderground v.1.15,2013-11-03 14:32:00,
2013-11-03 08:35:00,43.6,37.5,30.06,SE,142,12.0,14.0,79,0.00,,,0.00,248,Wunderground v.1.15,2013-11-03 14:35:00,
2013-11-03 08:36:00,43.7,37.6,30.06,SSE,150,8.0,14.0,79,0.00,,,0.00,251,Wunderground v.1.15,2013-11-03 14:36:00,
2013-11-03 08:37:00,43.7,37.6,30.06,SSE,154,10.0,14.0,79,0.00,,,0.00,251,Wunderground v.1.15,2013-11-03 14:37:00,
2013-11-03 08:41:00,44.0,37.9,30.06,SSE,149,11.0,14.0,79,0.00,,,0.00,262,Wunderground v.1.15,2013-11-03 14:41:00,
2013-11-03 08:42:00,44.1,37.7,30.05,SE,131,14.0,14.0,78,0.00,,,0.00,267,Wunderground v.1.15,2013-11-03 14:42:00,
2013-11-03 08:46:00,44.5,38.4,30.06,SSE,148,11.0,14.0,79,0.00,,,0.00,276,Wunderground v.1.15,2013-11-03 14:46:00,
2013-11-03 08:47:00,44.6,38.2,30.05,SE,131,9.0,14.0,78,0.00,,,0.00,272,Wunderground v.1.15,2013-11-03 14:47:00,
2013-11-03 08:51:00,44.9,38.1,30.06,SE,144,12.0,15.0,77,0.00,,,0.00,290,Wunderground v.1.15,2013-11-03 14:51:00,
2013-11-03 08:52:00,44.9,38.1,30.06,SE,145,8.0,12.0,77,0.00,,,0.00,294,Wunderground v.1.15,2013-11-03 14:52:00,
2013-11-03 08:53:00,45.0,38.2,30.06,SE,137,11.0,12.0,77,0.00,,,0.00,294,Wunderground v.1.15,2013-11-03 14:53:00,
2013-11-03 08:56:00,45.3,38.2,30.06,SE,133,10.0,16.0,76,0.00,,,0.00,299,Wunderground v.1.15,2013-11-03 14:56:00,
2013-11-03 08:57:00,45.4,38.3,30.06,SSE,150,12.0,16.0,76,0.00,,,0.00,308,Wunderground v.1.15,2013-11-03 14:57:00,
2013-11-03 08:58:00,45.4,38.6,30.06,South,170,10.0,16.0,77,0.00,,,0.00,308,Wunderground v.1.15,2013-11-03 14:58:00,
2013-11-03 08:59:00,45.5,38.4,30.06,SSE,147,10.0,16.0,76,0.00,,,0.00,309,Wunderground v.1.15,2013-11-03 14:59:00,
2013-11-03 09:01:00,45.7,38.9,30.06,SSE,148,11.0,16.0,77,0.00,,,0.00,316,Wunderground v.1.15,2013-11-03 15:01:00,
2013-11-03 09:02:00,45.8,39.0,30.06,SSE,162,10.0,16.0,77,0.00,,,0.00,318,Wunderground v.1.15,2013-11-03 15:02:00,
2013-11-03 09:03:00,45.9,38.8,30.06,SSE,156,10.0,14.0,76,0.00,,,0.00,322,Wunderground v.1.15,2013-11-03 15:03:00,
2013-11-03 09:05:00,46.0,38.9,30.06,SE,137,8.0,16.0,76,0.00,,,0.00,325,Wunderground v.1.15,2013-11-03 15:05:00,
2013-11-03 09:06:00,46.1,39.0,30.06,SSE,148,8.0,16.0,76,0.00,,,0.00,329,Wunderground v.1.15,2013-11-03 15:06:00,
2013-11-03 09:07:00,46.2,38.7,30.06,SSE,152,5.0,16.0,75,0.00,,,0.00,330,Wunderground v.1.15,2013-11-03 15:07:00,
2013-11-03 09:08:00,46.3,39.1,30.05,SSE,155,8.0,16.0,76,0.00,,,0.00,336,Wunderground v.1.15,2013-11-03 15:08:00,
2013-11-03 09:10:00,46.5,38.7,30.06,SE,143,12.0,16.0,74,0.00,,,0.00,338,Wunderground v.1.15,2013-11-03 15:10:00,
2013-11-03 09:11:00,46.6,38.8,30.05,SE,131,11.0,16.0,74,0.00,,,0.00,341,Wunderground v.1.15,2013-11-03 15:11:00,
2013-11-03 09:12:00,46.7,38.9,30.05,SE,140,9.0,16.0,74,0.00,,,0.00,345,Wunderground v.1.15,2013-11-03 15:12:00,
2013-11-03 09:13:00,46.8,38.9,30.05,SE,140,7.0,12.0,74,0.00,,,0.00,346,Wunderground v.1.15,2013-11-03 15:13:00,
2013-11-03 09:15:00,47.2,39.7,30.05,SE,139,10.0,13.0,75,0.00,,,0.00,352,Wunderground v.1.15,2013-11-03 15:15:00,
2013-11-03 09:16:00,47.5,39.6,30.05,SSE,150,9.0,13.0,74,0.00,,,0.00,353,Wunderground v.1.15,2013-11-03 15:16:00,
2013-11-03 09:17:00,47.6,39.7,30.05,SE,137,10.0,13.0,74,0.00,,,0.00,353,Wunderground v.1.15,2013-11-03 15:17:00,
2013-11-03 09:18:00,47.7,39.5,30.05,SE,143,13.0,13.0,73,0.00,,,0.00,359,Wunderground v.1.15,2013-11-03 15:18:00,
2013-11-03 09:20:00,47.8,39.2,30.05,SSE,155,13.0,14.0,72,0.00,,,0.00,362,Wunderground v.1.15,2013-11-03 15:20:00,
2013-11-03 09:21:00,47.9,39.3,30.05,SSE,161,11.0,15.0,72,0.00,,,0.00,366,Wunderground v.1.15,2013-11-03 15:21:00,
2013-11-03 09:22:00,48.0,39.4,30.05,SSE,147,14.0,14.0,72,0.00,,,0.00,369,Wunderground v.1.15,2013-11-03 15:22:00,
2013-11-03 09:23:00,48.2,39.2,30.05,SSE,148,8.0,17.0,71,0.00,,,0.00,371,Wunderground v.1.15,2013-11-03 15:23:00,
2013-11-03 09:24:00,48.3,39.3,30.05,SSE,154,9.0,17.0,71,0.00,,,0.00,373,Wunderground v.1.15,2013-11-03 15:24:00,
2013-11-03 09:25:00,48.4,39.4,30.05,SSE,162,7.0,17.0,71,0.00,,,0.00,376,Wunderground v.1.15,2013-11-03 15:25:00,
2013-11-03 09:26:00,48.5,39.2,30.05,SSE,161,11.0,17.0,70,0.00,,,0.00,378,Wunderground v.1.15,2013-11-03 15:26:00,
2013-11-03 09:27:00,48.7,39.4,30.05,SE,142,5.0,17.0,70,0.00,,,0.00,381,Wunderground v.1.15,2013-11-03 15:27:00,
2013-11-03 09:28:00,48.7,39.7,30.05,SE,142,12.0,17.0,71,0.00,,,0.00,381,Wunderground v.1.15,2013-11-03 15:28:00,
2013-11-03 09:30:00,49.0,39.3,30.05,SSE,154,11.0,17.0,69,0.00,,,0.00,385,Wunderground v.1.15,2013-11-03 15:30:00,
2013-11-03 09:32:00,49.1,39.4,30.04,SSE,160,11.0,17.0,69,0.00,,,0.00,390,Wunderground v.1.15,2013-11-03 15:32:00,
2013-11-03 09:33:00,49.2,39.5,30.04,South,169,9.0,14.0,69,0.00,,,0.00,394,Wunderground v.1.15,2013-11-03 15:33:00,
2013-11-03 09:34:00,49.3,39.2,30.04,SE,135,15.0,17.0,68,0.00,,,0.00,394,Wunderground v.1.15,2013-11-03 15:34:00,
2013-11-03 09:35:00,49.4,39.3,30.04,SE,146,11.0,17.0,68,0.00,,,0.00,396,Wunderground v.1.15,2013-11-03 15:35:00,
2013-11-03 09:37:00,49.6,39.1,30.04,SSE,154,9.0,19.0,67,0.00,,,0.00,404,Wunderground v.1.15,2013-11-03 15:37:00,
2013-11-03 09:38:00,49.6,39.1,30.04,SSE,147,12.0,19.0,67,0.00,,,0.00,404,Wunderground v.1.15,2013-11-03 15:38:00,
2013-11-03 09:39:00,49.7,39.2,30.04,South,178,8.0,19.0,67,0.00,,,0.00,404,Wunderground v.1.15,2013-11-03 15:39:00,
2013-11-03 09:40:00,49.9,39.0,30.04,SSE,161,15.0,19.0,66,0.00,,,0.00,408,Wunderground v.1.15,2013-11-03 15:40:00,
2013-11-03 09:43:00,50.1,39.2,30.04,SSE,152,13.0,16.0,66,0.00,,,0.00,415,Wunderground v.1.15,2013-11-03 15:43:00,
2013-11-03 09:44:00,50.3,39.4,30.04,South,173,12.0,16.0,66,0.00,,,0.00,418,Wunderground v.1.15,2013-11-03 15:44:00,
2013-11-03 09:45:00,50.3,39.4,30.04,SSE,154,14.0,17.0,66,0.00,,,0.00,418,Wunderground v.1.15,2013-11-03 15:45:00,
2013-11-03 09:46:00,50.4,39.1,30.04,SSE,153,11.0,17.0,65,0.00,,,0.00,420,Wunderground v.1.15,2013-11-03 15:46:00,
2013-11-03 09:48:00,50.7,39.0,30.03,SSE,161,16.0,18.0,64,0.00,,,0.00,427,Wunderground v.1.15,2013-11-03 15:48:00,
2013-11-03 09:49:00,50.7,39.0,30.03,SSE,163,9.0,18.0,64,0.00,,,0.00,427,Wunderground v.1.15,2013-11-03 15:49:00,
2013-11-03 09:50:00,50.9,39.9,30.04,SSE,164,10.0,18.0,66,0.00,,,0.00,432,Wunderground v.1.15,2013-11-03 15:50:00,
2013-11-03 09:51:00,50.9,39.1,30.04,SE,132,11.0,18.0,64,0.00,,,0.00,432,Wunderground v.1.15,2013-11-03 15:51:00,
2013-11-03 09:53:00,51.2,39.8,30.03,SE,131,18.0,18.0,65,0.00,,,0.00,436,Wunderground v.1.15,2013-11-03 15:53:00,
2013-11-03 09:54:00,51.2,39.0,30.03,SSE,147,11.0,18.0,63,0.00,,,0.00,438,Wunderground v.1.15,2013-11-03 15:54:00,
2013-11-03 09:56:00,51.3,39.5,30.03,SSE,153,13.0,18.0,64,0.00,,,0.00,441,Wunderground v.1.15,2013-11-03 15:56:00,
2013-11-03 09:59:00,51.5,38.9,30.03,SE,140,15.0,18.0,62,0.00,,,0.00,450,Wunderground v.1.15,2013-11-03 15:59:00,
2013-11-03 10:00:00,51.6,39.0,30.03,SSE,150,10.0,18.0,62,0.00,,,0.00,450,Wunderground v.1.15,2013-11-03 16:00:00,
2013-11-03 10:01:00,51.6,38.6,30.03,South,169,10.0,19.0,61,0.00,,,0.00,450,Wunderground v.1.15,2013-11-03 16:01:00,
2013-11-03 10:04:00,51.7,38.7,30.03,SSE,162,14.0,20.0,61,0.00,,,0.00,459,Wunderground v.1.15,2013-11-03 16:04:00,
2013-11-03 10:05:00,51.7,39.1,30.03,SSE,151,21.0,25.0,62,0.00,,,0.00,459,Wunderground v.1.15,2013-11-03 16:05:00,
2013-11-03 10:06:00,51.7,38.7,30.03,SSE,153,11.0,25.0,61,0.00,,,0.00,459,Wunderground v.1.15,2013-11-03 16:06:00,
2013-11-03 10:09:00,51.7,37.8,30.02,SE,142,18.0,25.0,59,0.00,,,0.00,466,Wunderground v.1.15,2013-11-03 16:09:00,
2013-11-03 10:11:00,51.8,38.8,30.02,SSE,159,15.0,25.0,61,0.00,,,0.00,471,Wunderground v.1.15,2013-11-03 16:11:00,
2013-11-03 10:12:00,52.0,39.4,30.02,SSE,154,17.0,17.0,62,0.00,,,0.00,473,Wunderground v.1.15,2013-11-03 16:12:00,
2013-11-03 10:14:00,52.2,38.3,30.02,SSE,165,11.0,19.0,59,0.00,,,0.00,476,Wunderground v.1.15,2013-11-03 16:14:00,
2013-11-03 10:16:00,52.2,39.1,30.02,SSE,153,10.0,19.0,61,0.00,,,0.00,480,Wunderground v.1.15,2013-11-03 16:16:00,
2013-11-03 10:17:00,52.2,38.3,30.02,SE,137,15.0,19.0,59,0.00,,,0.00,485,Wunderground v.1.15,2013-11-03 16:17:00,
2013-11-03 10:18:00,52.2,38.3,30.02,SE,144,14.0,19.0,59,0.00,,,0.00,485,Wunderground v.1.15,2013-11-03 16:18:00,
2013-11-03 10:19:00,52.2,38.3,30.01,South,173,17.0,19.0,59,0.00,,,0.00,487,Wunderground v.1.15,2013-11-03 16:19:00,
2013-11-03 10:21:00,52.4,38.5,30.02,SE,146,15.0,19.0,59,0.00,,,0.00,490,Wunderground v.1.15,2013-11-03 16:21:00,
2013-11-03 10:23:00,52.4,37.6,30.02,SE,142,15.0,25.0,57,0.00,,,0.00,494,Wunderground v.1.15,2013-11-03 16:23:00,
2013-11-03 10:25:00,52.5,38.1,30.02,SE,140,11.0,25.0,58,0.00,,,0.00,499,Wunderground v.1.15,2013-11-03 16:25:00,
2013-11-03 10:27:00,52.6,38.2,30.01,SE,146,16.0,25.0,58,0.00,,,0.00,501,Wunderground v.1.15,2013-11-03 16:27:00,
2013-11-03 10:28:00,52.6,38.2,30.02,SE,132,20.0,25.0,58,0.00,,,0.00,508,Wunderground v.1.15,2013-11-03 16:28:00,
2013-11-03 10:29:00,52.6,38.2,30.02,SE,144,18.0,25.0,58,0.00,,,0.00,508,Wunderground v.1.15,2013-11-03 16:29:00,
2013-11-03 10:31:00,52.6,37.8,30.01,SE,144,15.0,25.0,57,0.00,,,0.00,513,Wunderground v.1.15,2013-11-03 16:31:00,
2013-11-03 10:32:00,52.6,37.3,30.01,SE,133,18.0,25.0,56,0.00,,,0.00,513,Wunderground v.1.15,2013-11-03 16:32:00,
2013-11-03 10:33:00,52.6,37.8,30.02,SSE,154,14.0,23.0,57,0.00,,,0.00,519,Wunderground v.1.15,2013-11-03 16:33:00,
2013-11-03 10:34:00,52.7,38.3,30.02,SE,140,15.0,23.0,58,0.00,,,0.00,520,Wunderground v.1.15,2013-11-03 16:34:00,
2013-11-03 10:36:00,53.1,38.3,30.01,SE,141,16.0,23.0,57,0.00,,,0.00,526,Wunderground v.1.15,2013-11-03 16:36:00,
2013-11-03 10:37:00,53.2,37.9,30.02,SE,134,18.0,23.0,56,0.00,,,0.00,529,Wunderground v.1.15,2013-11-03 16:37:00,
2013-11-03 10:38:00,53.2,37.9,30.01,SSE,156,13.0,23.0,56,0.00,,,0.00,534,Wunderground v.1.15,2013-11-03 16:38:00,
2013-11-03 10:39:00,53.2,38.4,30.01,SSE,160,16.0,23.0,57,0.00,,,0.00,541,Wunderground v.1.15,2013-11-03 16:39:00,
2013-11-03 10:40:00,53.3,38.0,30.02,SE,143,18.0,23.0,56,0.00,,,0.00,485,Wunderground v.1.15,2013-11-03 16:40:00,
2013-11-03 10:41:00,53.3,37.5,30.01,South,169,18.0,23.0,55,0.00,,,0.00,471,Wunderground v.1.15,2013-11-03 16:41:00,
2013-11-03 10:43:00,53.3,37.1,30.01,SE,144,14.0,21.0,54,0.00,,,0.00,485,Wunderground v.1.15,2013-11-03 16:43:00,
2013-11-03 10:44:00,53.3,37.5,30.01,SE,138,13.0,21.0,55,0.00,,,0.00,487,Wunderground v.1.15,2013-11-03 16:44:00,
2013-11-03 10:45:00,53.3,38.0,30.01,SSE,167,10.0,21.0,56,0.00,,,0.00,487,Wunderground v.1.15,2013-11-03 16:45:00,
2013-11-03 10:46:00,53.4,37.2,30.01,SSE,166,15.0,26.0,54,0.00,,,0.00,417,Wunderground v.1.15,2013-11-03 16:46:00,
2013-11-03 10:48:00,53.3,37.5,30.01,SE,134,19.0,26.0,55,0.00,,,0.00,494,Wunderground v.1.15,2013-11-03 16:48:00,
2013-11-03 10:50:00,53.3,37.1,30.01,SE,133,22.0,26.0,54,0.00,,,0.00,534,Wunderground v.1.15,2013-11-03 16:50:00,
2013-11-03 10:51:00,53.3,37.1,30.01,SSE,163,16.0,26.0,54,0.00,,,0.00,519,Wunderground v.1.15,2013-11-03 16:51:00,
2013-11-03 10:52:00,53.3,37.1,30.01,South,180,11.0,26.0,54,0.00,,,0.00,501,Wunderground v.1.15,2013-11-03 16:52:00,
2013-11-03 10:53:00,53.4,37.6,30.01,SSE,150,13.0,17.0,55,0.00,,,0.00,432,Wunderground v.1.15,2013-11-03 16:53:00,
2013-11-03 10:55:00,53.5,37.3,30.01,SE,132,15.0,24.0,54,0.00,,,0.00,492,Wunderground v.1.15,2013-11-03 16:55:00,
2013-11-03 10:56:00,53.5,37.3,30.01,SE,129,16.0,24.0,54,0.00,,,0.00,538,Wunderground v.1.15,2013-11-03 16:56:00,
2013-11-03 10:57:00,53.6,37.3,30.01,SE,140,12.0,24.0,54,0.00,,,0.00,531,Wunderground v.1.15,2013-11-03 16:57:00,
2013-11-03 10:58:00,53.9,37.6,30.00,SSE,160,13.0,24.0,54,0.00,,,0.00,561,Wunderground v.1.15,2013-11-03 16:58:00,
2013-11-03 11:00:00,54.1,37.3,30.00,SE,146,15.0,25.0,53,0.00,,,0.00,570,Wunderground v.1.15,2013-11-03 17:00:00,
2013-11-03 11:01:00,54.2,37.4,30.00,SSE,150,16.0,25.0,53,0.00,,,0.00,568,Wunderground v.1.15,2013-11-03 17:01:00,
2013-11-03 11:02:00,54.3,37.0,30.00,SE,146,12.0,16.0,52,0.00,,,0.00,577,Wunderground v.1.15,2013-11-03 17:02:00,
2013-11-03 11:03:00,54.6,37.3,30.00,South,176,14.0,16.0,52,0.00,,,0.00,573,Wunderground v.1.15,2013-11-03 17:03:00,
2013-11-03 11:05:00,54.5,36.7,30.00,SE,140,13.0,24.0,51,0.00,,,0.00,536,Wunderground v.1.15,2013-11-03 17:05:00,
2013-11-03 11:06:00,54.5,37.7,30.00,SE,132,14.0,24.0,53,0.00,,,0.00,434,Wunderground v.1.15,2013-11-03 17:06:00,
2013-11-03 11:08:00,54.4,36.1,30.00,SE,128,11.0,24.0,50,0.00,,,0.00,510,Wunderground v.1.15,2013-11-03 17:08:00,
2013-11-03 11:09:00,54.3,36.5,30.00,SE,131,12.0,24.0,51,0.00,,,0.00,550,Wunderground v.1.15,2013-11-03 17:09:00,
2013-11-03 11:10:00,54.3,37.0,30.00,SE,140,15.0,24.0,52,0.00,,,0.00,540,Wunderground v.1.15,2013-11-03 17:10:00,
2013-11-03 11:11:00,54.4,37.6,30.00,SSE,154,19.0,24.0,53,0.00,,,0.00,540,Wunderground v.1.15,2013-11-03 17:11:00,
2013-11-03 11:13:00,54.5,36.7,30.00,ESE,115,18.0,25.0,51,0.00,,,0.00,555,Wunderground v.1.15,2013-11-03 17:13:00,
2013-11-03 11:14:00,54.5,36.7,30.00,SE,142,17.0,25.0,51,0.00,,,0.00,541,Wunderground v.1.15,2013-11-03 17:14:00,
2013-11-03 11:16:00,54.6,36.8,30.00,SSE,153,19.0,26.0,51,0.00,,,0.00,529,Wunderground v.1.15,2013-11-03 17:16:00,
2013-11-03 11:18:00,54.5,36.7,29.99,SSE,147,18.0,26.0,51,0.00,,,0.00,534,Wunderground v.1.15,2013-11-03 17:18:00,
2013-11-03 11:19:00,54.6,37.3,29.99,SSE,150,17.0,26.0,52,0.00,,,0.00,531,Wunderground v.1.15,2013-11-03 17:19:00,
2013-11-03 11:21:00,54.5,36.7,29.99,SE,138,18.0,26.0,51,0.00,,,0.00,578,Wunderground v.1.15,2013-11-03 17:21:00,
2013-11-03 11:22:00,54.5,36.7,29.99,SE,126,22.0,26.0,51,0.00,,,0.00,592,Wunderground v.1.15,2013-11-03 17:22:00,
2013-11-03 11:24:00,54.8,37.5,29.99,SE,142,24.0,27.0,52,0.00,,,0.00,591,Wunderground v.1.15,2013-11-03 17:24:00,
2013-11-03 11:25:00,54.9,37.1,29.99,SSE,150,21.0,27.0,51,0.00,,,0.00,591,Wunderground v.1.15,2013-11-03 17:25:00,
2013-11-03 11:26:00,54.9,36.6,29.99,SE,136,22.0,28.0,50,0.00,,,0.00,592,Wunderground v.1.15,2013-11-03 17:26:00,
2013-11-03 11:27:00,54.9,36.6,29.98,SE,135,12.0,28.0,50,0.00,,,0.00,598,Wunderground v.1.15,2013-11-03 17:27:00,
2013-11-03 11:29:00,55.0,37.2,29.98,SE,142,21.0,28.0,51,0.00,,,0.00,589,Wunderground v.1.15,2013-11-03 17:29:00,
2013-11-03 11:30:00,55.0,37.2,29.98,SSE,161,19.0,28.0,51,0.00,,,0.00,589,Wunderground v.1.15,2013-11-03 17:30:00,
2013-11-03 11:31:00,55.0,37.2,29.98,SSE,151,15.0,28.0,51,0.00,,,0.00,563,Wunderground v.1.15,2013-11-03 17:31:00,
2013-11-03 11:32:00,55.0,37.2,29.98,SSE,153,17.0,28.0,51,0.00,,,0.00,571,Wunderground v.1.15,2013-11-03 17:32:00,
2013-11-03 11:35:00,55.2,37.4,29.98,SSE,155,19.0,23.0,51,0.00,,,0.00,584,Wunderground v.1.15,2013-11-03 17:35:00,
2013-11-03 11:36:00,55.2,36.9,29.98,SE,144,17.0,23.0,50,0.00,,,0.00,497,Wunderground v.1.15,2013-11-03 17:36:00,
2013-11-03 11:37:00,55.2,36.9,29.98,SSE,155,14.0,23.0,50,0.00,,,0.00,540,Wunderground v.1.15,2013-11-03 17:37:00,
2013-11-03 11:40:00,55.1,37.3,29.98,SE,140,21.0,28.0,51,0.00,,,0.00,438,Wunderground v.1.15,2013-11-03 17:40:00,
2013-11-03 11:42:00,55.0,36.7,29.97,SE,138,27.0,28.0,50,0.00,,,0.00,624,Wunderground v.1.15,2013-11-03 17:42:00,
2013-11-03 11:45:00,55.2,37.4,29.97,SSE,159,18.0,24.0,51,0.00,,,0.00,510,Wunderground v.1.15,2013-11-03 17:45:00,
2013-11-03 11:46:00,55.3,37.0,29.97,SE,146,16.0,24.0,50,0.00,,,0.00,464,Wunderground v.1.15,2013-11-03 17:46:00,
2013-11-03 11:47:00,55.3,37.0,29.97,SSE,156,13.0,24.0,50,0.00,,,0.00,510,Wunderground v.1.15,2013-11-03 17:47:00,
2013-11-03 11:48:00,55.3,37.5,29.97,SSE,157,11.0,24.0,51,0.00,,,0.00,504,Wunderground v.1.15,2013-11-03 17:48:00,
2013-11-03 11:51:00,55.1,37.3,29.97,SSE,150,16.0,24.0,51,0.00,,,0.00,385,Wunderground v.1.15,2013-11-03 17:51:00,
2013-11-03 11:52:00,55.0,37.2,29.97,SE,127,22.0,22.0,51,0.00,,,0.00,366,Wunderground v.1.15,2013-11-03 17:52:00,
2013-11-03 11:53:00,54.9,36.6,29.96,SE,145,19.0,22.0,50,0.00,,,0.00,362,Wunderground v.1.15,2013-11-03 17:53:00,
2013-11-03 11:56:00,54.6,36.8,29.96,SE,146,8.0,22.0,51,0.00,,,0.00,262,Wunderground v.1.15,2013-11-03 17:56:00,
2013-11-03 11:57:00,54.6,36.8,29.96,SE,136,21.0,22.0,51,0.00,,,0.00,264,Wunderground v.1.15,2013-11-03 17:57:00,
2013-11-03 11:58:00,54.5,36.2,29.96,SSE,149,13.0,22.0,50,0.00,,,0.00,257,Wunderground v.1.15,2013-11-03 17:58:00,
2013-11-03 12:01:00,54.2,35.9,29.96,SSE,155,19.0,22.0,50,0.00,,,0.00,318,Wunderground v.1.15,2013-11-03 18:01:00,
2013-11-03 12:02:00,54.2,35.9,29.96,SE,142,17.0,20.0,50,0.00,,,0.00,318,Wunderground v.1.15,2013-11-03 18:02:00,
2013-11-03 12:04:00,54.3,36.0,29.96,SE,139,13.0,20.0,50,0.00,,,0.00,376,Wunderground v.1.15,2013-11-03 18:04:00,
2013-11-03 12:06:00,54.6,37.3,29.96,SE,127,14.0,23.0,52,0.00,,,0.00,297,Wunderground v.1.15,2013-11-03 18:06:00,
2013-11-03 12:07:00,54.5,36.7,29.96,ESE,110,11.0,23.0,51,0.00,,,0.00,274,Wunderground v.1.15,2013-11-03 18:07:00,
2013-11-03 12:08:00,54.5,36.7,29.96,SE,135,15.0,23.0,51,0.00,,,0.00,274,Wunderground v.1.15,2013-11-03 18:08:00,
2013-11-03 12:09:00,54.4,36.6,29.95,SSE,159,11.0,23.0,51,0.00,,,0.00,283,Wunderground v.1.15,2013-11-03 18:09:00,
2013-11-03 12:10:00,54.4,37.1,29.95,SE,146,12.0,23.0,52,0.00,,,0.00,283,Wunderground v.1.15,2013-11-03 18:10:00,
2013-11-03 12:11:00,54.3,37.0,29.95,SE,136,8.0,23.0,52,0.00,,,0.00,304,Wunderground v.1.15,2013-11-03 18:11:00,
2013-11-03 12:12:00,54.3,37.5,29.95,SE,132,16.0,23.0,53,0.00,,,0.00,285,Wunderground v.1.15,2013-11-03 18:12:00,
2013-11-03 12:13:00,54.3,36.5,29.95,SE,138,14.0,19.0,51,0.00,,,0.00,316,Wunderground v.1.15,2013-11-03 18:13:00,
2013-11-03 12:14:00,54.3,36.5,29.95,SE,126,10.0,19.0,51,0.00,,,0.00,287,Wunderground v.1.15,2013-11-03 18:14:00,
2013-11-03 12:15:00,54.3,37.0,29.95,SSE,164,13.0,19.0,52,0.00,,,0.00,290,Wunderground v.1.15,2013-11-03 18:15:00,
2013-11-03 12:16:00,54.2,35.9,29.95,SE,144,16.0,23.0,50,0.00,,,0.00,366,Wunderground v.1.15,2013-11-03 18:16:00,
2013-11-03 12:18:00,54.3,35.5,29.94,SE,131,14.0,25.0,49,0.00,,,0.00,246,Wunderground v.1.15,2013-11-03 18:18:00,
2013-11-03 12:19:00,54.3,36.0,29.94,SE,139,18.0,25.0,50,0.00,,,0.00,251,Wunderground v.1.15,2013-11-03 18:19:00,
2013-11-03 12:20:00,54.4,36.1,29.94,SE,146,15.0,25.0,50,0.00,,,0.00,251,Wunderground v.1.15,2013-11-03 18:20:00,
2013-11-03 12:21:00,54.6,36.8,29.94,SE,140,16.0,25.0,51,0.00,,,0.00,251,Wunderground v.1.15,2013-11-03 18:21:00,
2013-11-03 12:23:00,55.1,36.3,29.94,SE,139,17.0,26.0,49,0.00,,,0.00,615,Wunderground v.1.15,2013-11-03 18:23:00,
2013-11-03 12:24:00,55.2,35.8,29.94,SSE,147,13.0,26.0,48,0.00,,,0.00,679,Wunderground v.1.15,2013-11-03 18:24:00,
2013-11-03 12:25:00,55.5,37.1,29.94,SE,128,12.0,26.0,50,0.00,,,0.00,601,Wunderground v.1.15,2013-11-03 18:25:00,
2013-11-03 12:26:00,56.0,37.1,29.94,SSE,147,10.0,26.0,49,0.00,,,0.00,619,Wunderground v.1.15,2013-11-03 18:26:00,
2013-11-03 12:28:00,56.4,36.9,29.94,SSE,163,15.0,26.0,48,0.00,,,0.00,647,Wunderground v.1.15,2013-11-03 18:28:00,
2013-11-03 12:29:00,56.6,37.6,29.93,SSE,147,15.0,26.0,49,0.00,,,0.00,647,Wunderground v.1.15,2013-11-03 18:29:00,
2013-11-03 12:30:00,56.8,37.3,29.93,SSE,163,17.0,26.0,48,0.00,,,0.00,647,Wunderground v.1.15,2013-11-03 18:30:00,
2013-11-03 12:31:00,57.0,37.0,29.93,SE,142,18.0,26.0,47,0.00,,,0.00,647,Wunderground v.1.15,2013-11-03 18:31:00,
2013-11-03 12:32:00,57.1,36.5,29.93,SE,130,22.0,26.0,46,0.00,,,0.00,628,Wunderground v.1.15,2013-11-03 18:32:00,
2013-11-03 12:33:00,57.1,35.4,29.93,SE,128,21.0,28.0,44,0.00,,,0.00,526,Wunderground v.1.15,2013-11-03 18:33:00,
2013-11-03 12:34:00,57.1,35.4,29.93,SSE,149,16.0,28.0,44,0.00,,,0.00,436,Wunderground v.1.15,2013-11-03 18:34:00,
2013-11-03 12:35:00,57.1,35.9,29.93,SSE,151,21.0,28.0,45,0.00,,,0.00,436,Wunderground v.1.15,2013-11-03 18:35:00,
2013-11-03 12:37:00,56.8,35.1,29.93,SE,139,14.0,28.0,44,0.00,,,0.00,332,Wunderground v.1.15,2013-11-03 18:37:00,
2013-11-03 12:38:00,56.7,35.6,29.93,SSE,167,19.0,29.0,45,0.00,,,0.00,348,Wunderground v.1.15,2013-11-03 18:38:00,
2013-11-03 12:40:00,56.3,35.8,29.93,SSE,149,15.0,29.0,46,0.00,,,0.00,348,Wunderground v.1.15,2013-11-03 18:40:00,
2013-11-03 12:42:00,55.9,34.3,29.93,SSE,149,13.0,18.0,44,0.00,,,0.00,345,Wunderground v.1.15,2013-11-03 18:42:00,
2013-11-03 12:44:00,55.9,34.8,29.93,SSE,167,20.0,23.0,45,0.00,,,0.00,345,Wunderground v.1.15,2013-11-03 18:44:00,
2013-11-03 12:45:00,55.9,34.8,29.93,SSE,151,18.0,23.0,45,0.00,,,0.00,380,Wunderground v.1.15,2013-11-03 18:45:00,
2013-11-03 12:47:00,55.9,35.4,29.93,SSE,159,16.0,26.0,46,0.00,,,0.00,362,Wunderground v.1.15,2013-11-03 18:47:00,
2013-11-03 12:49:00,55.8,35.3,29.93,SE,141,16.0,29.0,46,0.00,,,0.00,378,Wunderground v.1.15,2013-11-03 18:49:00,
2013-11-03 12:50:00,55.7,34.7,29.93,SE,132,15.0,29.0,45,0.00,,,0.00,350,Wunderground v.1.15,2013-11-03 18:50:00,
2013-11-03 12:52:00,55.4,34.9,29.93,SSE,150,14.0,18.0,46,0.00,,,0.00,308,Wunderground v.1.15,2013-11-03 18:52:00,
2013-11-03 12:54:00,55.3,35.4,29.93,SE,141,14.0,23.0,47,0.00,,,0.00,308,Wunderground v.1.15,2013-11-03 18:54:00,
2013-11-03 12:55:00,55.1,35.2,29.93,SSE,150,13.0,25.0,47,0.00,,,0.00,309,Wunderground v.1.15,2013-11-03 18:55:00,
2013-11-03 12:56:00,55.1,35.7,29.93,ESE,107,14.0,25.0,48,0.00,,,0.00,309,Wunderground v.1.15,2013-11-03 18:56:00,
2013-11-03 12:58:00,55.3,35.9,29.92,SSE,150,15.0,25.0,48,0.00,,,0.00,374,Wunderground v.1.15,2013-11-03 18:58:00,
2013-11-03 12:59:00,55.3,35.9,29.92,SSE,155,19.0,25.0,48,0.00,,,0.00,457,Wunderground v.1.15,2013-11-03 18:59:00,
2013-11-03 13:01:00,55.4,36.5,29.92,SE,135,13.0,25.0,49,0.00,,,0.00,425,Wunderground v.1.15,2013-11-03 19:01:00,
2013-11-03 13:02:00,55.6,36.2,29.92,SE,134,12.0,25.0,48,0.00,,,0.00,399,Wunderground v.1.15,2013-11-03 19:02:00,
2013-11-03 13:03:00,55.7,35.2,29.92,SE,145,17.0,24.0,46,0.00,,,0.00,399,Wunderground v.1.15,2013-11-03 19:03:00,
2013-11-03 13:04:00,55.7,35.2,29.92,SE,141,14.0,24.0,46,0.00,,,0.00,388,Wunderground v.1.15,2013-11-03 19:04:00,
2013-11-03 13:06:00,55.7,35.2,29.92,SSE,153,18.0,24.0,46,0.00,,,0.00,394,Wunderground v.1.15,2013-11-03 19:06:00,
2013-11-03 13:07:00,55.7,35.2,29.92,SSE,157,13.0,24.0,46,0.00,,,0.00,396,Wunderground v.1.15,2013-11-03 19:07:00,
2013-11-03 13:09:00,55.9,35.4,29.92,SSE,147,18.0,24.0,46,0.00,,,0.00,387,Wunderground v.1.15,2013-11-03 19:09:00,
2013-11-03 13:12:00,55.8,36.4,29.91,SE,140,20.0,24.0,48,0.00,,,0.00,385,Wunderground v.1.15,2013-11-03 19:12:00,
2013-11-03 13:14:00,55.9,35.4,29.91,SSE,163,20.0,25.0,46,0.00,,,0.00,348,Wunderground v.1.15,2013-11-03 19:14:00,
2013-11-03 13:15:00,55.8,36.4,29.91,SSE,159,14.0,25.0,48,0.00,,,0.00,330,Wunderground v.1.15,2013-11-03 19:15:00,
2013-11-03 13:17:00,55.7,34.7,29.91,SE,134,13.0,28.0,45,0.00,,,0.00,290,Wunderground v.1.15,2013-11-03 19:17:00,
2013-11-03 13:18:00,55.7,35.2,29.91,SE,146,15.0,28.0,46,0.00,,,0.00,281,Wunderground v.1.15,2013-11-03 19:18:00,
2013-11-03 13:19:00,55.7,34.1,29.91,SE,144,17.0,28.0,44,0.00,,,0.00,281,Wunderground v.1.15,2013-11-03 19:19:00,
2013-11-03 13:20:00,55.7,34.7,29.91,SE,126,22.0,28.0,45,0.00,,,0.00,285,Wunderground v.1.15,2013-11-03 19:20:00,
2013-11-03 13:22:00,55.6,34.6,29.91,SE,140,21.0,21.0,45,0.00,,,0.00,274,Wunderground v.1.15,2013-11-03 19:22:00,
2013-11-03 13:23:00,55.5,35.0,29.91,SE,146,19.0,31.0,46,0.00,,,0.00,272,Wunderground v.1.15,2013-11-03 19:23:00,
2013-11-03 13:24:00,55.4,35.5,29.91,SSE,148,14.0,31.0,47,0.00,,,0.00,276,Wunderground v.1.15,2013-11-03 19:24:00,
2013-11-03 13:25:00,55.4,35.5,29.91,SE,138,16.0,31.0,47,0.00,,,0.00,279,Wunderground v.1.15,2013-11-03 19:25:00,
2013-11-03 13:27:00,55.4,34.9,29.91,SSE,152,19.0,31.0,46,0.00,,,0.00,279,Wunderground v.1.15,2013-11-03 19:27:00,
2013-11-03 13:28:00,55.3,34.9,29.91,ESE,122,18.0,31.0,46,0.00,,,0.00,279,Wunderground v.1.15,2013-11-03 19:28:00,
2013-11-03 13:29:00,55.3,34.9,29.91,SE,138,18.0,31.0,46,0.00,,,0.00,278,Wunderground v.1.15,2013-11-03 19:29:00,
2013-11-03 13:30:00,55.2,34.8,29.91,SSE,151,14.0,31.0,46,0.00,,,0.00,274,Wunderground v.1.15,2013-11-03 19:30:00,
2013-11-03 13:32:00,55.2,35.8,29.91,South,180,13.0,18.0,48,0.00,,,0.00,260,Wunderground v.1.15,2013-11-03 19:32:00,
2013-11-03 13:33:00,55.1,36.3,29.91,SE,142,16.0,20.0,49,0.00,,,0.00,258,Wunderground v.1.15,2013-11-03 19:33:00,
2013-11-03 13:34:00,55.1,36.3,29.91,SSE,165,11.0,20.0,49,0.00,,,0.00,257,Wunderground v.1.15,2013-11-03 19:34:00,
2013-11-03 13:35:00,55.1,35.7,29.91,SE,146,17.0,20.0,48,0.00,,,0.00,257,Wunderground v.1.15,2013-11-03 19:35:00,
2013-11-03 13:36:00,55.0,35.7,29.90,SSE,150,20.0,21.0,48,0.00,,,0.00,251,Wunderground v.1.15,2013-11-03 19:36:00,
2013-11-03 13:37:00,55.1,34.7,29.90,SE,146,18.0,21.0,46,0.00,,,0.00,244,Wunderground v.1.15,2013-11-03 19:37:00,
2013-11-03 13:38:00,55.2,35.3,29.90,SE,146,16.0,21.0,47,0.00,,,0.00,241,Wunderground v.1.15,2013-11-03 19:38:00,
2013-11-03 13:40:00,55.2,35.3,29.90,SE,145,13.0,21.0,47,0.00,,,0.00,234,Wunderground v.1.15,2013-11-03 19:40:00,
2013-11-03 13:41:00,55.3,35.9,29.90,SE,138,14.0,21.0,48,0.00,,,0.00,232,Wunderground v.1.15,2013-11-03 19:41:00,
2013-11-03 13:42:00,55.3,35.4,29.90,ESE,120,19.0,19.0,47,0.00,,,0.00,227,Wunderground v.1.15,2013-11-03 19:42:00,
2013-11-03 13:43:00,55.3,34.9,29.90,SE,140,14.0,22.0,46,0.00,,,0.00,225,Wunderground v.1.15,2013-11-03 19:43:00,
2013-11-03 13:45:00,55.2,34.8,29.90,SE,144,15.0,24.0,46,0.00,,,0.00,227,Wunderground v.1.15,2013-11-03 19:45:00,
2013-11-03 13:46:00,55.2,34.8,29.90,SE,127,12.0,24.0,46,0.00,,,0.00,225,Wunderground v.1.15,2013-11-03 19:46:00,
2013-11-03 13:47:00,55.1,35.2,29.90,SSE,155,14.0,24.0,47,0.00,,,0.00,221,Wunderground v.1.15,2013-11-03 19:47:00,
2013-11-03 13:50:00,55.0,35.7,29.90,SE,130,15.0,24.0,48,0.00,,,0.00,216,Wunderground v.1.15,2013-11-03 19:50:00,
2013-11-03 13:51:00,55.0,35.1,29.90,SSE,156,11.0,24.0,47,0.00,,,0.00,213,Wunderground v.1.15,2013-11-03 19:51:00,
2013-11-03 13:52:00,55.0,35.7,29.89,SE,134,13.0,24.0,48,0.00,,,0.00,207,Wunderground v.1.15,2013-11-03 19:52:00,
2013-11-03 13:53:00,55.0,35.1,29.89,ESE,111,12.0,21.0,47,0.00,,,0.00,206,Wunderground v.1.15,2013-11-03 19:53:00,
2013-11-03 13:55:00,55.0,35.1,29.89,SE,130,15.0,22.0,47,0.00,,,0.00,202,Wunderground v.1.15,2013-11-03 19:55:00,
2013-11-03 13:56:00,55.1,35.2,29.89,SSE,150,14.0,22.0,47,0.00,,,0.00,202,Wunderground v.1.15,2013-11-03 19:56:00,
2013-11-03 13:57:00,55.1,35.7,29.89,SE,140,15.0,22.0,48,0.00,,,0.00,204,Wunderground v.1.15,2013-11-03 19:57:00,
2013-11-03 13:58:00,55.0,35.7,29.89,SE,132,11.0,22.0,48,0.00,,,0.00,204,Wunderground v.1.15,2013-11-03 19:58:00,
2013-11-03 14:00:00,55.0,35.7,29.89,SE,144,10.0,22.0,48,0.00,,,0.00,207,Wunderground v.1.15,2013-11-03 20:00:00,
2013-11-03 14:01:00,55.0,36.2,29.89,SE,138,13.0,22.0,49,0.00,,,0.00,211,Wunderground v.1.15,2013-11-03 20:01:00,
2013-11-03 14:02:00,55.0,36.7,29.89,SSE,156,20.0,22.0,50,0.00,,,0.00,220,Wunderground v.1.15,2013-11-03 20:02:00,
2013-11-03 14:03:00,54.9,36.1,29.89,SE,132,22.0,27.0,49,0.00,,,0.00,234,Wunderground v.1.15,2013-11-03 20:03:00,
2013-11-03 14:06:00,54.9,37.1,29.89,SE,132,19.0,27.0,51,0.00,,,0.00,241,Wunderground v.1.15,2013-11-03 20:06:00,
2013-11-03 14:08:00,54.9,36.1,29.89,SSE,160,22.0,27.0,49,0.00,,,0.00,241,Wunderground v.1.15,2013-11-03 20:08:00,
2013-11-03 14:09:00,54.9,37.1,29.89,SE,131,13.0,27.0,51,0.00,,,0.00,243,Wunderground v.1.15,2013-11-03 20:09:00,
2013-11-03 14:11:00,55.0,36.7,29.89,SSE,148,19.0,27.0,50,0.00,,,0.00,251,Wunderground v.1.15,2013-11-03 20:11:00,
2013-11-03 14:12:00,55.0,36.7,29.89,ESE,111,31.0,31.0,50,0.00,,,0.00,251,Wunderground v.1.15,2013-11-03 20:12:00,
2013-11-03 14:13:00,55.0,36.2,29.89,SE,130,19.0,23.0,49,0.00,,,0.00,250,Wunderground v.1.15,2013-11-03 20:13:00,
2013-11-03 14:14:00,55.1,36.3,29.89,SSE,155,19.0,23.0,49,0.00,,,0.00,255,Wunderground v.1.15,2013-11-03 20:14:00,
2013-11-03 14:16:00,55.1,36.8,29.88,SSE,148,18.0,24.0,50,0.00,,,0.00,258,Wunderground v.1.15,2013-11-03 20:16:00,
2013-11-03 14:17:00,55.1,36.8,29.88,SSE,149,18.0,24.0,50,0.00,,,0.00,255,Wunderground v.1.15,2013-11-03 20:17:00,
2013-11-03 14:18:00,55.1,36.8,29.88,SE,138,11.0,24.0,50,0.00,,,0.00,253,Wunderground v.1.15,2013-11-03 20:18:00,
2013-11-03 14:19:00,55.2,36.4,29.88,ESE,119,19.0,24.0,49,0.00,,,0.00,251,Wunderground v.1.15,2013-11-03 20:19:00,
2013-11-03 14:21:00,55.2,36.4,29.88,SE,135,18.0,24.0,49,0.00,,,0.00,234,Wunderground v.1.15,2013-11-03 20:21:00,
2013-11-03 14:22:00,55.2,36.4,29.88,ESE,117,18.0,24.0,49,0.00,,,0.00,229,Wunderground v.1.15,2013-11-03 20:22:00,
2013-11-03 14:23:00,55.2,35.8,29.88,ESE,120,15.0,19.0,48,0.00,,,0.00,225,Wunderground v.1.15,2013-11-03 20:23:00,
2013-11-03 14:24:00,55.2,35.3,29.88,ESE,108,17.0,25.0,47,0.00,,,0.00,223,Wunderground v.1.15,2013-11-03 20:24:00,
2013-11-03 14:27:00,55.1,35.7,29.88,SE,146,19.0,25.0,48,0.00,,,0.00,214,Wunderground v.1.15,2013-11-03 20:27:00,
2013-11-03 14:28:00,55.0,35.7,29.88,SE,130,18.0,26.0,48,0.00,,,0.00,213,Wunderground v.1.15,2013-11-03 20:28:00,
2013-11-03 14:29:00,54.9,36.1,29.88,SE,126,17.0,28.0,49,0.00,,,0.00,207,Wunderground v.1.15,2013-11-03 20:29:00,
2013-11-03 14:32:00,54.8,36.0,29.88,SSE,158,15.0,28.0,49,0.00,,,0.00,197,Wunderground v.1.15,2013-11-03 20:32:00,
2013-11-03 14:33:00,54.8,37.0,29.88,SE,142,22.0,22.0,51,0.00,,,0.00,197,Wunderground v.1.15,2013-11-03 20:33:00,
2013-11-03 14:34:00,54.6,36.3,29.88,SE,140,15.0,22.0,50,0.00,,,0.00,190,Wunderground v.1.15,2013-11-03 20:34:00,
2013-11-03 14:35:00,54.6,36.8,29.88,SSE,165,18.0,22.0,51,0.00,,,0.00,183,Wunderground v.1.15,2013-11-03 20:35:00,
2013-11-03 14:37:00,54.6,36.8,29.88,SSE,147,17.0,22.0,51,0.00,,,0.00,181,Wunderground v.1.15,2013-11-03 20:37:00,
2013-11-03 14:38:00,54.6,36.3,29.88,SE,144,19.0,22.0,50,0.00,,,0.00,179,Wunderground v.1.15,2013-11-03 20:38:00,
2013-11-03 14:40:00,54.6,36.8,29.88,SSE,153,21.0,22.0,51,0.00,,,0.00,178,Wunderground v.1.15,2013-11-03 20:40:00,
2013-11-03 14:41:00,54.6,36.8,29.88,SE,137,11.0,22.0,51,0.00,,,0.00,178,Wunderground v.1.15,2013-11-03 20:41:00,
2013-11-03 14:42:00,54.6,36.3,29.88,SE,143,14.0,16.0,50,0.00,,,0.00,178,Wunderground v.1.15,2013-11-03 20:42:00,
2013-11-03 14:43:00,54.6,36.3,29.88,SSE,161,14.0,19.0,50,0.00,,,0.00,174,Wunderground v.1.15,2013-11-03 20:43:00,
2013-11-03 14:45:00,54.6,36.3,29.88,SE,139,16.0,26.0,50,0.00,,,0.00,176,Wunderground v.1.15,2013-11-03 20:45:00,
2013-11-03 14:46:00,54.7,36.4,29.88,SE,137,12.0,26.0,50,0.00,,,0.00,176,Wunderground v.1.15,2013-11-03 20:46:00,
2013-11-03 14:47:00,54.7,36.9,29.88,SE,132,15.0,26.0,51,0.00,,,0.00,178,Wunderground v.1.15,2013-11-03 20:47:00,
2013-11-03 14:49:00,54.7,36.9,29.88,SE,126,11.0,26.0,51,0.00,,,0.00,176,Wunderground v.1.15,2013-11-03 20:49:00,
2013-11-03 14:50:00,54.7,36.4,29.88,SSE,155,14.0,26.0,50,0.00,,,0.00,174,Wunderground v.1.15,2013-11-03 20:50:00,
2013-11-03 14:51:00,54.7,36.9,29.88,SE,142,17.0,26.0,51,0.00,,,0.00,171,Wunderground v.1.15,2013-11-03 20:51:00,
2013-11-03 14:52:00,54.7,36.9,29.88,SSE,151,19.0,19.0,51,0.00,,,0.00,169,Wunderground v.1.15,2013-11-03 20:52:00,
2013-11-03 14:54:00,54.7,37.4,29.88,SE,138,9.0,22.0,52,0.00,,,0.00,167,Wunderground v.1.15,2013-11-03 20:54:00,
2013-11-03 14:55:00,54.7,37.4,29.88,SE,137,10.0,22.0,52,0.00,,,0.00,167,Wunderground v.1.15,2013-11-03 20:55:00,
2013-11-03 14:56:00,54.7,37.4,29.88,SE,132,11.0,22.0,52,0.00,,,0.00,169,Wunderground v.1.15,2013-11-03 20:56:00,
2013-11-03 14:57:00,54.7,36.9,29.88,SSE,149,16.0,22.0,51,0.00,,,0.00,171,Wunderground v.1.15,2013-11-03 20:57:00,
2013-11-03 14:59:00,54.7,36.9,29.88,SSE,153,20.0,22.0,51,0.00,,,0.00,169,Wunderground v.1.15,2013-11-03 20:59:00,
2013-11-03 15:00:00,54.8,37.0,29.88,SSE,153,12.0,22.0,51,0.00,,,0.00,163,Wunderground v.1.15,2013-11-03 21:00:00,
2013-11-03 15:01:00,54.7,37.4,29.88,SE,134,14.0,22.0,52,0.00,,,0.00,160,Wunderground v.1.15,2013-11-03 21:01:00,
2013-11-03 15:02:00,54.7,37.4,29.88,SE,135,14.0,18.0,52,0.00,,,0.00,156,Wunderground v.1.15,2013-11-03 21:02:00,
2013-11-03 15:04:00,54.7,36.9,29.88,SE,136,13.0,18.0,51,0.00,,,0.00,149,Wunderground v.1.15,2013-11-03 21:04:00,
2013-11-03 15:05:00,54.7,36.9,29.88,ESE,117,12.0,18.0,51,0.00,,,0.00,146,Wunderground v.1.15,2013-11-03 21:05:00,
2013-11-03 15:06:00,54.7,36.9,29.88,SE,134,15.0,21.0,51,0.00,,,0.00,144,Wunderground v.1.15,2013-11-03 21:06:00,
2013-11-03 15:07:00,54.7,36.9,29.88,ESE,115,12.0,21.0,51,0.00,,,0.00,142,Wunderground v.1.15,2013-11-03 21:07:00,
2013-11-03 15:08:00,54.7,36.9,29.88,ESE,123,14.0,21.0,51,0.00,,,0.00,142,Wunderground v.1.15,2013-11-03 21:08:00,
2013-11-03 15:10:00,54.7,36.9,29.88,SSE,152,11.0,22.0,51,0.00,,,0.00,137,Wunderground v.1.15,2013-11-03 21:10:00,
2013-11-03 15:12:00,54.6,37.8,29.88,SSE,148,14.0,17.0,53,0.00,,,0.00,139,Wunderground v.1.15,2013-11-03 21:12:00,
2013-11-03 15:13:00,54.5,37.2,29.88,SE,136,13.0,21.0,52,0.00,,,0.00,141,Wunderground v.1.15,2013-11-03 21:13:00,
2013-11-03 15:14:00,54.5,37.2,29.88,ESE,120,19.0,21.0,52,0.00,,,0.00,141,Wunderground v.1.15,2013-11-03 21:14:00,
2013-11-03 15:15:00,54.5,36.7,29.88,SE,139,19.0,25.0,51,0.00,,,0.00,139,Wunderground v.1.15,2013-11-03 21:15:00,
2013-11-03 15:16:00,54.5,36.7,29.88,ESE,110,18.0,25.0,51,0.00,,,0.00,139,Wunderground v.1.15,2013-11-03 21:16:00,
2013-11-03 15:17:00,54.5,37.2,29.87,ESE,117,13.0,25.0,52,0.00,,,0.00,137,Wunderground v.1.15,2013-11-03 21:17:00,
2013-11-03 15:18:00,54.5,37.2,29.87,SE,128,12.0,25.0,52,0.00,,,0.00,137,Wunderground v.1.15,2013-11-03 21:18:00,
2013-11-03 15:19:00,54.4,37.1,29.87,SE,137,11.0,25.0,52,0.00,,,0.00,134,Wunderground v.1.15,2013-11-03 21:19:00,
2013-11-03 15:20:00,54.4,37.6,29.87,SSE,148,14.0,25.0,53,0.00,,,0.00,132,Wunderground v.1.15,2013-11-03 21:20:00,
2013-11-03 15:21:00,54.4,37.6,29.87,SSE,148,19.0,25.0,53,0.00,,,0.00,132,Wunderground v.1.15,2013-11-03 21:21:00,
2013-11-03 15:22:00,54.3,37.0,29.87,ESE,114,14.0,21.0,52,0.00,,,0.00,127,Wunderground v.1.15,2013-11-03 21:22:00,
2013-11-03 15:23:00,54.3,37.5,29.87,SE,140,15.0,21.0,53,0.00,,,0.00,127,Wunderground v.1.15,2013-11-03 21:23:00,
2013-11-03 15:24:00,54.3,37.0,29.87,SE,124,18.0,23.0,52,0.00,,,0.00,125,Wunderground v.1.15,2013-11-03 21:24:00,
2013-11-03 15:26:00,54.2,36.9,29.88,SSE,155,14.0,23.0,52,0.00,,,0.00,123,Wunderground v.1.15,2013-11-03 21:26:00,
2013-11-03 15:28:00,54.2,36.9,29.87,SSE,148,19.0,23.0,52,0.00,,,0.00,118,Wunderground v.1.15,2013-11-03 21:28:00,
2013-11-03 15:30:00,54.2,37.4,29.87,SE,140,15.0,23.0,53,0.00,,,0.00,113,Wunderground v.1.15,2013-11-03 21:30:00,
2013-11-03 15:31:00,54.1,37.3,29.87,SSE,153,18.0,23.0,53,0.00,,,0.00,111,Wunderground v.1.15,2013-11-03 21:31:00,
2013-11-03 15:32:00,54.1,37.3,29.87,SE,128,25.0,27.0,53,0.00,,,0.00,105,Wunderground v.1.15,2013-11-03 21:32:00,
2013-11-03 15:33:00,54.0,36.8,29.87,SE,140,17.0,22.0,52,0.00,,,0.00,104,Wunderground v.1.15,2013-11-03 21:33:00,
2013-11-03 15:34:00,54.1,36.9,29.87,ESE,119,14.0,22.0,52,0.00,,,0.00,102,Wunderground v.1.15,2013-11-03 21:34:00,
2013-11-03 15:35:00,54.1,37.3,29.87,SE,142,20.0,22.0,53,0.00,,,0.00,100,Wunderground v.1.15,2013-11-03 21:35:00,
2013-11-03 15:36:00,54.0,37.2,29.87,ESE,123,16.0,22.0,53,0.00,,,0.00,98,Wunderground v.1.15,2013-11-03 21:36:00,
2013-11-03 15:37:00,54.0,37.2,29.87,SSE,150,16.0,26.0,53,0.00,,,0.00,98,Wunderground v.1.15,2013-11-03 21:37:00,
2013-11-03 15:39:00,54.0,37.2,29.86,SE,137,17.0,26.0,53,0.00,,,0.00,98,Wunderground v.1.15,2013-11-03 21:39:00,
2013-11-03 15:40:00,53.9,36.7,29.86,SSE,153,14.0,26.0,52,0.00,,,0.00,98,Wunderground v.1.15,2013-11-03 21:40:00,
2013-11-03 15:42:00,53.9,37.1,29.87,SE,130,12.0,26.0,53,0.00,,,0.00,98,Wunderground v.1.15,2013-11-03 21:42:00,
2013-11-03 15:43:00,53.9,37.1,29.87,SSE,147,15.0,20.0,53,0.00,,,0.00,95,Wunderground v.1.15,2013-11-03 21:43:00,
2013-11-03 15:44:00,53.9,37.1,29.86,SE,134,16.0,21.0,53,0.00,,,0.00,95,Wunderground v.1.15,2013-11-03 21:44:00,
2013-11-03 15:46:00,53.8,37.1,29.86,SE,135,13.0,21.0,53,0.00,,,0.00,93,Wunderground v.1.15,2013-11-03 21:46:00,
2013-11-03 15:47:00,53.8,37.1,29.86,SE,137,13.0,24.0,53,0.00,,,0.00,91,Wunderground v.1.15,2013-11-03 21:47:00,
2013-11-03 15:49:00,53.8,37.1,29.86,SE,144,21.0,24.0,53,0.00,,,0.00,90,Wunderground v.1.15,2013-11-03 21:49:00,
2013-11-03 15:50:00,53.8,37.1,29.86,SSE,147,17.0,24.0,53,0.00,,,0.00,88,Wunderground v.1.15,2013-11-03 21:50:00,
2013-11-03 15:51:00,53.8,37.1,29.86,SSE,156,11.0,24.0,53,0.00,,,0.00,86,Wunderground v.1.15,2013-11-03 21:51:00,
2013-11-03 15:52:00,53.9,37.1,29.86,SSE,150,11.0,24.0,53,0.00,,,0.00,86,Wunderground v.1.15,2013-11-03 21:52:00,
2013-11-03 15:54:00,53.8,37.1,29.86,SSE,148,17.0,19.0,53,0.00,,,0.00,81,Wunderground v.1.15,2013-11-03 21:54:00,
2013-11-03 15:55:00,53.8,37.1,29.86,SE,138,9.0,19.0,53,0.00,,,0.00,81,Wunderground v.1.15,2013-11-03 21:55:00,
2013-11-03 15:56:00,53.7,37.0,29.86,SE,140,9.0,19.0,53,0.00,,,0.00,77,Wunderground v.1.15,2013-11-03 21:56:00,
2013-11-03 15:57:00,53.7,37.4,29.87,ESE,122,15.0,19.0,54,0.00,,,0.00,76,Wunderground v.1.15,2013-11-03 21:57:00,
2013-11-03 15:59:00,53.6,36.9,29.87,SE,142,22.0,22.0,53,0.00,,,0.00,70,Wunderground v.1.15,2013-11-03 21:59:00,
2013-11-03 16:00:00,53.6,37.3,29.87,SE,129,13.0,23.0,54,0.00,,,0.00,69,Wunderground v.1.15,2013-11-03 22:00:00,
2013-11-03 16:01:00,53.5,37.3,29.87,SE,144,12.0,23.0,54,0.00,,,0.00,69,Wunderground v.1.15,2013-11-03 22:01:00,
2013-11-03 16:02:00,53.5,37.3,29.87,SSE,148,11.0,23.0,54,0.00,,,0.00,69,Wunderground v.1.15,2013-11-03 22:02:00,
2013-11-03 16:04:00,53.5,37.3,29.87,SE,126,13.0,17.0,54,0.00,,,0.00,67,Wunderground v.1.15,2013-11-03 22:04:00,
2013-11-03 16:05:00,53.5,37.3,29.87,SE,130,6.0,17.0,54,0.00,,,0.00,67,Wunderground v.1.15,2013-11-03 22:05:00,
2013-11-03 16:06:00,53.5,37.3,29.87,SSE,150,13.0,19.0,54,0.00,,,0.00,65,Wunderground v.1.15,2013-11-03 22:06:00,
2013-11-03 16:07:00,53.5,36.8,29.87,SE,139,10.0,19.0,53,0.00,,,0.00,65,Wunderground v.1.15,2013-11-03 22:07:00,
2013-11-03 16:09:00,53.4,37.6,29.87,SE,138,12.0,21.0,55,0.00,,,0.00,60,Wunderground v.1.15,2013-11-03 22:09:00,
2013-11-03 16:11:00,53.4,37.2,29.86,SE,146,14.0,21.0,54,0.00,,,0.00,54,Wunderground v.1.15,2013-11-03 22:11:00,
2013-11-03 16:12:00,53.5,37.3,29.86,SE,145,11.0,13.0,54,0.00,,,0.00,53,Wunderground v.1.15,2013-11-03 22:12:00,
2013-11-03 16:13:00,53.5,37.3,29.86,SE,127,14.0,18.0,54,0.00,,,0.00,53,Wunderground v.1.15,2013-11-03 22:13:00,
2013-11-03 16:16:00,53.5,36.8,29.86,SE,134,18.0,21.0,53,0.00,,,0.00,47,Wunderground v.1.15,2013-11-03 22:16:00,
2013-11-03 16:17:00,53.5,36.8,29.86,SE,144,7.0,21.0,53,0.00,,,0.00,44,Wunderground v.1.15,2013-11-03 22:17:00,
2013-11-03 16:18:00,53.5,37.3,29.86,SSE,154,12.0,21.0,54,0.00,,,0.00,42,Wunderground v.1.15,2013-11-03 22:18:00,
2013-11-03 16:21:00,53.4,37.2,29.86,SE,125,13.0,22.0,54,0.00,,,0.00,39,Wunderground v.1.15,2013-11-03 22:21:00,
2013-11-03 16:22:00,53.5,36.8,29.86,SSE,148,14.0,22.0,53,0.00,,,0.00,39,Wunderground v.1.15,2013-11-03 22:22:00,
2013-11-03 16:23:00,53.4,37.2,29.86,SE,143,17.0,17.0,54,0.00,,,0.00,37,Wunderground v.1.15,2013-11-03 22:23:00,
2013-11-03 16:27:00,53.2,37.4,29.86,SSE,147,12.0,20.0,55,0.00,,,0.00,33,Wunderground v.1.15,2013-11-03 22:27:00,
2013-11-03 16:28:00,53.2,37.4,29.86,SE,141,10.0,20.0,55,0.00,,,0.00,33,Wunderground v.1.15,2013-11-03 22:28:00,
2013-11-03 16:32:00,53.1,37.3,29.86,SE,146,11.0,14.0,55,0.00,,,0.00,28,Wunderground v.1.15,2013-11-03 22:32:00,
2013-11-03 16:33:00,53.1,37.3,29.86,SE,131,12.0,14.0,55,0.00,,,0.00,28,Wunderground v.1.15,2013-11-03 22:33:00,
2013-11-03 16:37:00,53.0,37.3,29.86,SE,129,22.0,23.0,55,0.00,,,0.00,26,Wunderground v.1.15,2013-11-03 22:37:00,
2013-11-03 16:38:00,53.0,37.3,29.86,SE,146,15.0,23.0,55,0.00,,,0.00,26,Wunderground v.1.15,2013-11-03 22:38:00,
2013-11-03 16:39:00,53.1,37.8,29.86,SE,141,13.0,23.0,56,0.00,,,0.00,25,Wunderground v.1.15,2013-11-03 22:39:00,
2013-11-03 16:42:00,53.0,37.7,29.86,SE,136,9.0,13.0,56,0.00,,,0.00,21,Wunderground v.1.15,2013-11-03 22:42:00,
2013-11-03 16:43:00,53.0,37.7,29.86,SE,130,15.0,17.0,56,0.00,,,0.00,21,Wunderground v.1.15,2013-11-03 22:43:00,
2013-11-03 16:44:00,53.0,37.7,29.86,SE,134,15.0,17.0,56,0.00,,,0.00,19,Wunderground v.1.15,2013-11-03 22:44:00,
2013-11-03 16:47:00,52.9,37.6,29.86,SE,146,16.0,18.0,56,0.00,,,0.00,16,Wunderground v.1.15,2013-11-03 22:47:00,
2013-11-03 16:48:00,52.8,37.5,29.86,SE,145,13.0,20.0,56,0.00,,,0.00,14,Wunderground v.1.15,2013-11-03 22:48:00,
2013-11-03 16:49:00,52.8,38.0,29.86,SSE,152,14.0,20.0,57,0.00,,,0.00,12,Wunderground v.1.15,2013-11-03 22:49:00,
2013-11-03 16:50:00,52.8,38.0,29.86,ESE,121,15.0,20.0,57,0.00,,,0.00,12,Wunderground v.1.15,2013-11-03 22:50:00,
2013-11-03 16:53:00,52.7,37.9,29.86,SE,125,18.0,21.0,57,0.00,,,0.00,11,Wunderground v.1.15,2013-11-03 22:53:00,
2013-11-03 16:54:00,52.7,37.9,29.86,SE,136,18.0,23.0,57,0.00,,,0.00,11,Wunderground v.1.15,2013-11-03 22:54:00,
2013-11-03 16:56:00,52.8,38.0,29.86,SE,137,13.0,23.0,57,0.00,,,0.00,9,Wunderground v.1.15,2013-11-03 22:56:00,
2013-11-03 16:58:00,52.7,37.9,29.86,ESE,122,14.0,23.0,57,0.00,,,0.00,7,Wunderground v.1.15,2013-11-03 22:58:00,
2013-11-03 16:59:00,52.7,37.9,29.86,ESE,119,14.0,23.0,57,0.00,,,0.00,7,Wunderground v.1.15,2013-11-03 22:59:00,
2013-11-03 17:01:00,52.7,37.9,29.86,SE,128,15.0,26.0,57,0.00,,,0.00,7,Wunderground v.1.15,2013-11-03 23:01:00,
2013-11-03 17:04:00,52.6,37.8,29.85,SSE,154,13.0,19.0,57,0.00,,,0.00,5,Wunderground v.1.15,2013-11-03 23:04:00,
2013-11-03 17:06:00,52.5,38.1,29.85,ESE,121,20.0,27.0,58,0.00,,,0.00,0,Wunderground v.1.15,2013-11-03 23:06:00,
2013-11-03 17:07:00,52.5,37.7,29.85,SE,126,13.0,27.0,57,0.00,,,0.00,0,Wunderground v.1.15,2013-11-03 23:07:00,
2013-11-03 17:09:00,52.5,37.7,29.86,ESE,122,18.0,27.0,57,0.00,,,0.00,0,Wunderground v.1.15,2013-11-03 23:09:00,
2013-11-03 17:11:00,52.5,38.1,29.85,SE,126,8.0,27.0,58,0.00,,,0.00,0,Wunderground v.1.15,2013-11-03 23:11:00,
2013-11-03 17:12:00,52.4,38.0,29.85,SE,139,17.0,21.0,58,0.00,,,0.00,0,Wunderground v.1.15,2013-11-03 23:12:00,
2013-11-03 17:14:00,52.4,38.0,29.86,ESE,103,21.0,21.0,58,0.00,,,0.00,0,Wunderground v.1.15,2013-11-03 23:14:00,
2013-11-03 17:15:00,52.4,38.0,29.86,ESE,119,12.0,27.0,58,0.00,,,0.00,0,Wunderground v.1.15,2013-11-03 23:15:00,
2013-11-03 17:16:00,52.4,37.6,29.85,South,172,11.0,27.0,57,0.00,,,0.00,0,Wunderground v.1.15,2013-11-03 23:16:00,
2013-11-03 17:18:00,52.4,38.0,29.85,SE,128,14.0,27.0,58,0.00,,,0.00,0,Wunderground v.1.15,2013-11-03 23:18:00,
2013-11-03 17:20:00,52.3,38.0,29.85,ESE,114,19.0,27.0,58,0.00,,,0.00,0,Wunderground v.1.15,2013-11-03 23:20:00,
2013-11-03 17:21:00,52.3,37.5,29.85,SE,136,13.0,27.0,57,0.00,,,0.00,0,Wunderground v.1.15,2013-11-03 23:21:00,
2013-11-03 17:23:00,52.4,37.6,29.85,SE,126,12.0,23.0,57,0.00,,,0.00,0,Wunderground v.1.15,2013-11-03 23:23:00,
2013-11-03 17:25:00,52.3,37.5,29.85,SE,132,8.0,23.0,57,0.00,,,0.00,0,Wunderground v.1.15,2013-11-03 23:25:00,
2013-11-03 17:26:00,52.3,38.0,29.85,ESE,120,13.0,23.0,58,0.00,,,0.00,0,Wunderground v.1.15,2013-11-03 23:26:00,
2013-11-03 17:28:00,52.1,37.8,29.85,SE,126,14.0,23.0,58,0.00,,,0.00,0,Wunderground v.1.15,2013-11-03 23:28:00,
2013-11-03 17:30:00,52.1,37.8,29.86,SE,129,13.0,23.0,58,0.00,,,0.00,0,Wunderground v.1.15,2013-11-03 23:30:00,
2013-11-03 17:31:00,52.2,37.9,29.86,SE,140,18.0,23.0,58,0.00,,,0.00,0,Wunderground v.1.15,2013-11-03 23:31:00,
2013-11-03 17:34:00,52.1,37.8,29.85,ESE,112,18.0,19.0,58,0.00,,,0.00,0,Wunderground v.1.15,2013-11-03 23:34:00,
2013-11-03 17:35:00,52.1,37.8,29.85,SSE,151,14.0,19.0,58,0.00,,,0.00,0,Wunderground v.1.15,2013-11-03 23:35:00,
2013-11-03 17:36:00,52.1,37.8,29.85,SE,126,20.0,22.0,58,0.00,,,0.00,0,Wunderground v.1.15,2013-11-03 23:36:00,
2013-11-03 17:37:00,52.1,37.8,29.85,ESE,116,15.0,22.0,58,0.00,,,0.00,0,Wunderground v.1.15,2013-11-03 23:37:00,
2013-11-03 17:40:00,52.1,37.3,29.85,SE,144,9.0,22.0,57,0.00,,,0.00,0,Wunderground v.1.15,2013-11-03 23:40:00,
2013-11-03 17:41:00,52.1,37.8,29.85,ESE,123,15.0,22.0,58,0.00,,,0.00,0,Wunderground v.1.15,2013-11-03 23:41:00,
2013-11-03 17:42:00,52.1,37.3,29.85,SE,130,13.0,16.0,57,0.00,,,0.00,0,Wunderground v.1.15,2013-11-03 23:42:00,
2013-11-03 17:43:00,52.1,37.3,29.85,ESE,119,10.0,16.0,57,0.00,,,0.00,0,Wunderground v.1.15,2013-11-03 23:43:00,
2013-11-03 17:45:00,52.0,37.7,29.85,South,179,16.0,26.0,58,0.00,,,0.00,0,Wunderground v.1.15,2013-11-03 23:45:00,
2013-11-03 17:46:00,52.0,37.7,29.84,ESE,119,12.0,26.0,58,0.00,,,0.00,0,Wunderground v.1.15,2013-11-03 23:46:00,
2013-11-03 17:47:00,52.0,37.7,29.84,ESE,122,14.0,26.0,58,0.00,,,0.00,0,Wunderground v.1.15,2013-11-03 23:47:00,
2013-11-03 17:48:00,52.0,37.7,29.84,SE,126,12.0,26.0,58,0.00,,,0.00,0,Wunderground v.1.15,2013-11-03 23:48:00,
2013-11-03 17:51:00,51.9,37.6,29.84,SSE,161,14.0,26.0,58,0.00,,,0.00,0,Wunderground v.1.15,2013-11-03 23:51:00,
2013-11-03 17:52:00,51.9,37.6,29.84,SE,127,21.0,26.0,58,0.00,,,0.00,0,Wunderground v.1.15,2013-11-03 23:52:00,
2013-11-03 17:53:00,51.9,37.1,29.84,SE,146,14.0,22.0,57,0.00,,,0.00,0,Wunderground v.1.15,2013-11-03 23:53:00,
2013-11-03 17:57:00,51.9,37.1,29.84,ESE,114,17.0,26.0,57,0.00,,,0.00,0,Wunderground v.1.15,2013-11-03 23:57:00,
2013-11-03 17:58:00,51.9,37.1,29.84,SE,126,13.0,26.0,57,0.00,,,0.00,0,Wunderground v.1.15,2013-11-03 23:58:00,
2013-11-03 18:02:00,51.9,37.6,29.84,ESE,116,16.0,26.0,58,0.00,,,0.00,0,Wunderground v.1.15,2013-11-04 00:02:00,
2013-11-03 18:04:00,51.8,37.5,29.84,SE,128,10.0,19.0,58,0.00,,,0.00,0,Wunderground v.1.15,2013-11-04 00:04:00,
2013-11-03 18:07:00,51.8,37.5,29.84,SE,134,16.0,24.0,58,0.00,,,0.00,0,Wunderground v.1.15,2013-11-04 00:07:00,
2013-11-03 18:08:00,51.8,37.5,29.84,SE,144,13.0,24.0,58,0.00,,,0.00,0,Wunderground v.1.15,2013-11-04 00:08:00,
2013-11-03 18:09:00,51.8,37.5,29.84,SE,140,16.0,24.0,58,0.00,,,0.00,0,Wunderground v.1.15,2013-11-04 00:09:00,
2013-11-03 18:13:00,51.8,37.9,29.85,SE,128,11.0,18.0,59,0.00,,,0.00,0,Wunderground v.1.15,2013-11-04 00:13:00,
2013-11-03 18:14:00,51.7,37.8,29.84,SE,130,11.0,19.0,59,0.00,,,0.00,0,Wunderground v.1.15,2013-11-04 00:14:00,
2013-11-03 18:15:00,51.7,37.4,29.84,SSE,161,14.0,19.0,58,0.00,,,0.00,0,Wunderground v.1.15,2013-11-04 00:15:00,
2013-11-03 18:16:00,51.7,37.8,29.84,SE,131,15.0,22.0,59,0.00,,,0.00,0,Wunderground v.1.15,2013-11-04 00:16:00,
2013-11-03 18:18:00,51.7,37.8,29.84,ESE,120,12.0,23.0,59,0.00,,,0.00,0,Wunderground v.1.15,2013-11-04 00:18:00,
2013-11-03 18:19:00,51.7,37.8,29.84,SE,131,17.0,23.0,59,0.00,,,0.00,0,Wunderground v.1.15,2013-11-04 00:19:00,
2013-11-03 18:20:00,51.7,37.4,29.84,ESE,113,14.0,23.0,58,0.00,,,0.00,0,Wunderground v.1.15,2013-11-04 00:20:00,
2013-11-03 18:21:00,51.7,37.8,29.84,SE,127,16.0,23.0,59,0.00,,,0.00,0,Wunderground v.1.15,2013-11-04 00:21:00,
2013-11-03 18:23:00,51.7,37.8,29.84,ESE,109,17.0,25.0,59,0.00,,,0.00,0,Wunderground v.1.15,2013-11-04 00:23:00,
2013-11-03 18:24:00,51.7,37.8,29.84,SE,138,13.0,25.0,59,0.00,,,0.00,0,Wunderground v.1.15,2013-11-04 00:24:00,
2013-11-03 18:25:00,51.7,37.8,29.84,ESE,113,12.0,25.0,59,0.00,,,0.00,0,Wunderground v.1.15,2013-11-04 00:25:00,
2013-11-03 18:26:00,51.7,37.8,29.84,SE,130,15.0,25.0,59,0.00,,,0.00,0,Wunderground v.1.15,2013-11-04 00:26:00,
2013-11-03 18:28:00,51.6,37.7,29.85,East,96,13.0,25.0,59,0.00,,,0.00,0,Wunderground v.1.15,2013-11-04 00:28:00,
2013-11-03 18:29:00,51.6,37.7,29.85,ESE,122,15.0,25.0,59,0.00,,,0.00,0,Wunderground v.1.15,2013-11-04 00:29:00,
2013-11-03 18:30:00,51.6,37.7,29.84,SSE,152,12.0,25.0,59,0.00,,,0.00,0,Wunderground v.1.15,2013-11-04 00:30:00,
2013-11-03 18:31:00,51.6,37.7,29.84,ESE,112,11.0,25.0,59,0.00,,,0.00,0,Wunderground v.1.15,2013-11-04 00:31:00,
2013-11-03 18:33:00,51.6,37.7,29.84,SE,139,13.0,21.0,59,0.00,,,0.00,0,Wunderground v.1.15,2013-11-04 00:33:00,
2013-11-03 18:34:00,51.6,37.3,29.84,SE,142,11.0,21.0,58,0.00,,,0.00,0,Wunderground v.1.15,2013-11-04 00:34:00,
2013-11-03 18:35:00,51.7,37.8,29.84,SE,125,11.0,21.0,59,0.00,,,0.00,0,Wunderground v.1.15,2013-11-04 00:35:00,
2013-11-03 18:36:00,51.7,37.8,29.84,ESE,103,14.0,21.0,59,0.00,,,0.00,0,Wunderground v.1.15,2013-11-04 00:36:00,
2013-11-03 18:37:00,51.7,37.8,29.84,SE,132,9.0,21.0,59,0.00,,,0.00,0,Wunderground v.1.15,2013-11-04 00:37:00,
2013-11-03 18:39:00,51.7,37.8,29.84,SE,141,15.0,25.0,59,0.00,,,0.00,0,Wunderground v.1.15,2013-11-04 00:39:00,
2013-11-03 18:40:00,51.7,37.8,29.84,SE,134,10.0,25.0,59,0.00,,,0.00,0,Wunderground v.1.15,2013-11-04 00:40:00,
2013-11-03 18:41:00,51.6,37.7,29.84,SSE,155,18.0,25.0,59,0.00,,,0.00,0,Wunderground v.1.15,2013-11-04 00:41:00,
2013-11-03 18:43:00,51.6,37.7,29.84,SE,139,10.0,17.0,59,0.00,,,0.00,0,Wunderground v.1.15,2013-11-04 00:43:00,
2013-11-03 18:44:00,51.5,37.6,29.83,ESE,116,13.0,18.0,59,0.00,,,0.00,0,Wunderground v.1.15,2013-11-04 00:44:00,
2013-11-03 18:45:00,51.5,37.6,29.83,ESE,117,15.0,18.0,59,0.00,,,0.00,0,Wunderground v.1.15,2013-11-04 00:45:00,
2013-11-03 18:47:00,51.4,37.5,29.83,SSE,150,20.0,20.0,59,0.00,,,0.00,0,Wunderground v.1.15,2013-11-04 00:47:00,
2013-11-03 18:48:00,51.4,37.5,29.83,SE,144,19.0,23.0,59,0.00,,,0.00,0,Wunderground v.1.15,2013-11-04 00:48:00,
2013-11-03 18:49:00,51.5,37.6,29.83,ESE,118,19.0,23.0,59,0.00,,,0.00,0,Wunderground v.1.15,2013-11-04 00:49:00,
2013-11-03 18:50:00,51.4,37.5,29.83,SE,124,12.0,23.0,59,0.00,,,0.00,0,Wunderground v.1.15,2013-11-04 00:50:00,
2013-11-03 18:53:00,51.5,37.6,29.83,ESE,122,12.0,17.0,59,0.00,,,0.00,0,Wunderground v.1.15,2013-11-04 00:53:00,
2013-11-03 18:54:00,51.4,37.5,29.83,ESE,113,9.0,20.0,59,0.00,,,0.00,0,Wunderground v.1.15,2013-11-04 00:54:00,
2013-11-03 18:55:00,51.5,37.6,29.83,SSE,147,9.0,20.0,59,0.00,,,0.00,0,Wunderground v.1.15,2013-11-04 00:55:00,
2013-11-03 18:57:00,51.5,37.6,29.83,SSE,154,21.0,23.0,59,0.00,,,0.00,0,Wunderground v.1.15,2013-11-04 00:57:00,
2013-11-03 18:58:00,51.5,37.6,29.83,SE,131,12.0,24.0,59,0.00,,,0.00,0,Wunderground v.1.15,2013-11-04 00:58:00,
2013-11-03 18:59:00,51.5,37.6,29.83,SE,127,14.0,24.0,59,0.00,,,0.00,0,Wunderground v.1.15,2013-11-04 00:59:00,
2013-11-03 19:01:00,51.5,38.1,29.83,SE,126,14.0,24.0,60,0.00,,,0.00,0,Wunderground v.1.15,2013-11-04 01:01:00,
2013-11-03 19:02:00,51.5,37.6,29.83,SSE,165,12.0,24.0,59,0.00,,,0.00,0,Wunderground v.1.15,2013-11-04 01:02:00,
2013-11-03 19:03:00,51.5,37.6,29.83,SE,134,21.0,21.0,59,0.00,,,0.00,0,Wunderground v.1.15,2013-11-04 01:03:00,
2013-11-03 19:04:00,51.5,37.6,29.83,SE,131,11.0,21.0,59,0.00,,,0.00,0,Wunderground v.1.15,2013-11-04 01:04:00,
2013-11-03 19:06:00,51.5,37.6,29.83,SE,127,20.0,25.0,59,0.00,,,0.00,0,Wunderground v.1.15,2013-11-04 01:06:00,
2013-11-03 19:07:00,51.5,37.6,29.83,SSE,157,15.0,25.0,59,0.00,,,0.00,0,Wunderground v.1.15,2013-11-04 01:07:00,
2013-11-03 19:08:00,51.5,38.1,29.84,SE,132,15.0,25.0,60,0.00,,,0.00,0,Wunderground v.1.15,2013-11-04 01:08:00,
2013-11-03 19:09:00,51.4,38.0,29.84,ESE,111,12.0,25.0,60,0.00,,,0.00,0,Wunderground v.1.15,2013-11-04 01:09:00,
2013-11-03 19:11:00,51.4,38.0,29.84,SSE,150,12.0,25.0,60,0.00,,,0.00,0,Wunderground v.1.15,2013-11-04 01:11:00,
2013-11-03 19:12:00,51.3,37.9,29.83,SE,140,13.0,25.0,60,0.00,,,0.00,0,Wunderground v.1.15,2013-11-04 01:12:00,
2013-11-03 19:13:00,51.2,37.8,29.83,ESE,119,22.0,27.0,60,0.00,,,0.00,0,Wunderground v.1.15,2013-11-04 01:13:00,
2013-11-03 19:14:00,51.3,37.9,29.83,SE,144,13.0,27.0,60,0.00,,,0.00,0,Wunderground v.1.15,2013-11-04 01:14:00,
2013-11-03 19:16:00,51.2,37.8,29.83,SE,125,20.0,29.0,60,0.00,,,0.00,0,Wunderground v.1.15,2013-11-04 01:16:00,
2013-11-03 19:17:00,51.3,37.9,29.83,SE,144,25.0,29.0,60,0.00,,,0.00,0,Wunderground v.1.15,2013-11-04 01:17:00,
2013-11-03 19:18:00,51.3,37.9,29.83,SE,144,22.0,29.0,60,0.00,,,0.00,0,Wunderground v.1.15,2013-11-04 01:18:00,
2013-11-03 19:19:00,51.3,37.9,29.83,ESE,115,21.0,29.0,60,0.00,,,0.00,0,Wunderground v.1.15,2013-11-04 01:19:00,
2013-11-03 19:21:00,51.3,37.9,29.83,SE,145,16.0,29.0,60,0.00,,,0.00,0,Wunderground v.1.15,2013-11-04 01:21:00,
2013-11-03 19:22:00,51.3,37.9,29.83,ESE,116,12.0,18.0,60,0.00,,,0.00,0,Wunderground v.1.15,2013-11-04 01:22:00,
2013-11-03 19:23:00,51.2,37.8,29.84,ESE,121,18.0,21.0,60,0.00,,,0.00,0,Wunderground v.1.15,2013-11-04 01:23:00,
2013-11-03 19:24:00,51.2,37.8,29.83,ESE,120,17.0,22.0,60,0.00,,,0.00,0,Wunderground v.1.15,2013-11-04 01:24:00,
2013-11-03 19:25:00,51.3,37.9,29.84,SE,142,17.0,22.0,60,0.00,,,0.00,0,Wunderground v.1.15,2013-11-04 01:25:00,
2013-11-03 19:27:00,51.2,37.8,29.84,SE,126,17.0,22.0,60,0.00,,,0.00,0,Wunderground v.1.15,2013-11-04 01:27:00,
2013-11-03 19:29:00,51.2,37.8,29.83,SE,138,14.0,25.0,60,0.00,,,0.00,0,Wunderground v.1.15,2013-11-04 01:29:00,
2013-11-03 19:30:00,51.2,38.2,29.84,ESE,113,17.0,25.0,61,0.00,,,0.00,0,Wunderground v.1.15,2013-11-04 01:30:00,
2013-11-03 19:32:00,51.2,37.8,29.83,SE,145,9.0,25.0,60,0.00,,,0.00,0,Wunderground v.1.15,2013-11-04 01:32:00,
2013-11-03 19:33:00,51.2,38.2,29.84,SSE,155,12.0,19.0,61,0.00,,,0.00,0,Wunderground v.1.15,2013-11-04 01:33:00,
2013-11-03 19:34:00,51.1,38.1,29.84,SE,135,14.0,23.0,61,0.00,,,0.00,0,Wunderground v.1.15,2013-11-04 01:34:00,
2013-11-03 19:35:00,51.1,38.1,29.83,SE,126,12.0,23.0,61,0.00,,,0.00,0,Wunderground v.1.15,2013-11-04 01:35:00,
2013-11-03 19:37:00,51.0,38.0,29.83,SSE,148,18.0,23.0,61,0.00,,,0.00,0,Wunderground v.1.15,2013-11-04 01:37:00,
2013-11-03 19:38:00,51.0,38.0,29.83,SSE,152,13.0,23.0,61,0.00,,,0.00,0,Wunderground v.1.15,2013-11-04 01:38:00,
2013-11-03 19:39:00,51.0,38.0,29.83,ESE,119,15.0,23.0,61,0.00,,,0.00,0,Wunderground v.1.15,2013-11-04 01:39:00,
2013-11-03 19:40:00,51.0,38.0,29.83,SE,124,17.0,23.0,61,0.00,,,0.00,0,Wunderground v.1.15,2013-11-04 01:40:00,
2013-11-03 19:42:00,51.0,38.0,29.83,SE,132,20.0,20.0,61,0.00,,,0.00,0,Wunderground v.1.15,2013-11-04 01:42:00,
2013-11-03 19:43:00,50.9,37.9,29.83,SSE,159,25.0,26.0,61,0.00,,,0.00,0,Wunderground v.1.15,2013-11-04 01:43:00,
2013-11-03 19:44:00,50.9,37.9,29.83,SE,146,16.0,26.0,61,0.00,,,0.00,0,Wunderground v.1.15,2013-11-04 01:44:00,
2013-11-03 19:45:00,51.0,38.0,29.83,SE,132,14.0,27.0,61,0.00,,,0.00,0,Wunderground v.1.15,2013-11-04 01:45:00,
2013-11-03 19:47:00,51.1,37.7,29.83,SE,126,20.0,27.0,60,0.00,,,0.00,0,Wunderground v.1.15,2013-11-04 01:47:00,
2013-11-03 19:48:00,51.1,37.7,29.83,ESE,122,11.0,27.0,60,0.00,,,0.00,0,Wunderground v.1.15,2013-11-04 01:48:00,
2013-11-03 19:49:00,51.1,38.1,29.83,SE,135,14.0,27.0,61,0.00,,,0.00,0,Wunderground v.1.15,2013-11-04 01:49:00,
2013-11-03 19:50:00,51.0,37.6,29.83,SE,134,16.0,27.0,60,0.00,,,0.00,0,Wunderground v.1.15,2013-11-04 01:50:00,
2013-11-03 19:51:00,51.1,37.7,29.83,SSE,149,14.0,27.0,60,0.00,,,0.00,0,Wunderground v.1.15,2013-11-04 01:51:00,
2013-11-03 19:53:00,51.1,38.1,29.83,SE,145,19.0,23.0,61,0.00,,,0.00,0,Wunderground v.1.15,2013-11-04 01:53:00,
2013-11-03 19:54:00,51.1,37.7,29.83,SE,129,24.0,24.0,60,0.00,,,0.00,0,Wunderground v.1.15,2013-11-04 01:54:00,
2013-11-03 19:56:00,51.2,37.8,29.83,SE,134,16.0,28.0,60,0.00,,,0.00,0,Wunderground v.1.15,2013-11-04 01:56:00,
2013-11-03 19:58:00,51.3,37.9,29.83,ESE,119,13.0,28.0,60,0.00,,,0.00,0,Wunderground v.1.15,2013-11-04 01:58:00,
2013-11-03 19:59:00,51.4,38.0,29.83,SE,140,9.0,28.0,60,0.00,,,0.00,0,Wunderground v.1.15,2013-11-04 01:59:00,
2013-11-03 20:00:00,51.3,37.9,29.84,SE,126,13.0,28.0,60,0.00,,,0.00,0,Wunderground v.1.15,2013-11-04 02:00:00,
2013-11-03 20:01:00,51.4,38.0,29.84,SE,137,15.0,28.0,60,0.00,,,0.00,0,Wunderground v.1.15,2013-11-04 02:01:00,
2013-11-03 20:04:00,51.2,37.8,29.84,SE,146,18.0,18.0,60,0.00,,,0.00,0,Wunderground v.1.15,2013-11-04 02:04:00,
2013-11-03 20:05:00,51.1,38.1,29.84,SE,142,8.0,19.0,61,0.00,,,0.00,0,Wunderground v.1.15,2013-11-04 02:05:00,
2013-11-03 20:06:00,51.0,38.0,29.84,SE,133,10.0,19.0,61,0.00,,,0.00,0,Wunderground v.1.15,2013-11-04 02:06:00,
2013-11-03 20:07:00,51.0,37.6,29.84,SE,146,11.0,21.0,60,0.00,,,0.00,0,Wunderground v.1.15,2013-11-04 02:07:00,
2013-11-03 20:09:00,51.1,38.1,29.84,SE,130,18.0,21.0,61,0.00,,,0.00,0,Wunderground v.1.15,2013-11-04 02:09:00,
2013-11-03 20:10:00,51.1,38.1,29.84,SE,136,16.0,23.0,61,0.00,,,0.00,0,Wunderground v.1.15,2013-11-04 02:10:00,
2013-11-03 20:11:00,51.1,38.1,29.84,SE,132,9.0,23.0,61,0.00,,,0.00,0,Wunderground v.1.15,2013-11-04 02:11:00,
2013-11-03 20:12:00,51.2,37.8,29.84,ESE,120,14.0,23.0,60,0.00,,,0.00,0,Wunderground v.1.15,2013-11-04 02:12:00,
2013-11-03 20:13:00,51.2,37.8,29.84,ESE,111,13.0,23.0,60,0.00,,,0.00,0,Wunderground v.1.15,2013-11-04 02:13:00,
2013-11-03 20:14:00,51.3,37.9,29.84,SE,142,14.0,23.0,60,0.00,,,0.00,0,Wunderground v.1.15,2013-11-04 02:14:00,
2013-11-03 20:15:00,51.3,38.3,29.84,SE,127,11.0,23.0,61,0.00,,,0.00,0,Wunderground v.1.15,2013-11-04 02:15:00,
2013-11-03 20:16:00,51.3,37.9,29.84,SE,138,11.0,23.0,60,0.00,,,0.00,0,Wunderground v.1.15,2013-11-04 02:16:00,
2013-11-03 20:18:00,51.2,37.8,29.84,ESE,119,14.0,23.0,60,0.00,,,0.00,0,Wunderground v.1.15,2013-11-04 02:18:00,
2013-11-03 20:20:00,51.3,37.9,29.84,SE,130,12.0,23.0,60,0.00,,,0.00,0,Wunderground v.1.15,2013-11-04 02:20:00,
2013-11-03 20:21:00,51.3,37.9,29.84,SSE,155,9.0,23.0,60,0.00,,,0.00,0,Wunderground v.1.15,2013-11-04 02:21:00,
2013-11-03 20:24:00,51.3,38.3,29.84,SE,132,11.0,19.0,61,0.00,,,0.00,0,Wunderground v.1.15,2013-11-04 02:24:00,
2013-11-03 20:25:00,51.3,38.3,29.84,SSE,155,17.0,19.0,61,0.00,,,0.00,0,Wunderground v.1.15,2013-11-04 02:25:00,
2013-11-03 20:26:00,51.3,38.3,29.84,SE,140,9.0,19.0,61,0.00,,,0.00,0,Wunderground v.1.15,2013-11-04 02:26:00,
2013-11-03 20:29:00,51.3,37.9,29.84,SE,142,10.0,19.0,60,0.00,,,0.00,0,Wunderground v.1.15,2013-11-04 02:29:00,
2013-11-03 20:30:00,51.3,37.9,29.84,SE,144,12.0,21.0,60,0.00,,,0.00,0,Wunderground v.1.15,2013-11-04 02:30:00,
2013-11-03 20:31:00,51.3,38.3,29.84,ESE,118,11.0,21.0,61,0.00,,,0.00,0,Wunderground v.1.15,2013-11-04 02:31:00,
2013-11-03 20:34:00,51.4,38.4,29.84,SE,132,14.0,18.0,61,0.00,,,0.00,0,Wunderground v.1.15,2013-11-04 02:34:00,
2013-11-03 20:36:00,51.4,38.4,29.84,SSE,148,20.0,22.0,61,0.00,,,0.00,0,Wunderground v.1.15,2013-11-04 02:36:00,
2013-11-03 20:37:00,51.5,38.1,29.84,SE,141,18.0,22.0,60,0.00,,,0.00,0,Wunderground v.1.15,2013-11-04 02:37:00,
2013-11-03 20:39:00,51.6,38.6,29.85,SE,134,10.0,22.0,61,0.00,,,0.00,0,Wunderground v.1.15,2013-11-04 02:39:00,
2013-11-03 20:40:00,51.5,38.5,29.85,SE,136,13.0,22.0,61,0.00,,,0.00,0,Wunderground v.1.15,2013-11-04 02:40:00,
2013-11-03 20:41:00,51.5,38.5,29.85,SE,132,18.0,22.0,61,0.00,,,0.00,0,Wunderground v.1.15,2013-11-04 02:41:00,
2013-11-03 20:42:00,51.5,38.5,29.85,SE,132,18.0,24.0,61,0.00,,,0.00,0,Wunderground v.1.15,2013-11-04 02:42:00,
2013-11-03 20:44:00,51.5,38.5,29.85,ESE,122,18.0,20.0,61,0.00,,,0.00,0,Wunderground v.1.15,2013-11-04 02:44:00,
2013-11-03 20:45:00,51.6,38.6,29.85,SE,140,14.0,20.0,61,0.00,,,0.00,0,Wunderground v.1.15,2013-11-04 02:45:00,
2013-11-03 20:46:00,51.5,38.5,29.85,SE,142,11.0,20.0,61,0.00,,,0.00,0,Wunderground v.1.15,2013-11-04 02:46:00,
2013-11-03 20:47:00,51.5,38.5,29.85,SSE,158,14.0,20.0,61,0.00,,,0.00,0,Wunderground v.1.15,2013-11-04 02:47:00,
2013-11-03 20:50:00,51.5,38.5,29.85,SSE,158,21.0,22.0,61,0.00,,,0.00,0,Wunderground v.1.15,2013-11-04 02:50:00,
2013-11-03 20:51:00,51.5,38.5,29.85,SSE,155,17.0,24.0,61,0.00,,,0.00,0,Wunderground v.1.15,2013-11-04 02:51:00,
2013-11-03 20:52:00,51.5,38.5,29.85,SE,125,14.0,24.0,61,0.00,,,0.00,0,Wunderground v.1.15,2013-11-04 02:52:00,
2013-11-03 20:55:00,51.6,38.6,29.85,SE,131,14.0,24.0,61,0.00,,,0.00,0,Wunderground v.1.15,2013-11-04 02:55:00,
2013-11-03 20:56:00,51.6,38.6,29.85,SE,130,11.0,24.0,61,0.00,,,0.00,0,Wunderground v.1.15,2013-11-04 02:56:00,
2013-11-03 20:57:00,51.6,38.6,29.85,SSE,150,12.0,24.0,61,0.00,,,0.00,0,Wunderground v.1.15,2013-11-04 02:57:00,
2013-11-03 20:58:00,51.6,38.6,29.85,SSE,159,15.0,24.0,61,0.00,,,0.00,0,Wunderground v.1.15,2013-11-04 02:58:00,
2013-11-03 21:00:00,51.6,38.6,29.85,SE,138,9.0,24.0,61,0.00,,,0.00,0,Wunderground v.1.15,2013-11-04 03:00:00,
2013-11-03 21:01:00,51.6,38.6,29.85,SSE,154,13.0,24.0,61,0.00,,,0.00,0,Wunderground v.1.15,2013-11-04 03:01:00,
2013-11-03 21:02:00,51.6,38.6,29.85,SE,144,11.0,24.0,61,0.00,,,0.00,0,Wunderground v.1.15,2013-11-04 03:02:00,
2013-11-03 21:03:00,51.6,38.6,29.85,SE,138,11.0,15.0,61,0.00,,,0.00,0,Wunderground v.1.15,2013-11-04 03:03:00,
2013-11-03 21:06:00,51.6,38.6,29.85,ESE,122,19.0,28.0,61,0.00,,,0.00,0,Wunderground v.1.15,2013-11-04 03:06:00,
2013-11-03 21:07:00,51.7,38.7,29.85,SSE,149,10.0,28.0,61,0.00,,,0.00,0,Wunderground v.1.15,2013-11-04 03:07:00,
2013-11-03 21:08:00,51.7,38.7,29.85,SE,125,14.0,28.0,61,0.00,,,0.00,0,Wunderground v.1.15,2013-11-04 03:08:00,
2013-11-03 21:12:00,51.8,38.3,29.85,SE,132,18.0,28.0,60,0.00,,,0.00,0,Wunderground v.1.15,2013-11-04 03:12:00,
2013-11-03 21:13:00,51.8,38.8,29.85,SE,138,15.0,21.0,61,0.00,,,0.00,0,Wunderground v.1.15,2013-11-04 03:13:00,
2013-11-03 21:14:00,51.8,38.8,29.85,SE,125,17.0,22.0,61,0.00,,,0.00,0,Wunderground v.1.15,2013-11-04 03:14:00,
2013-11-03 21:17:00,51.6,39.0,29.85,SE,133,19.0,22.0,62,0.00,,,0.00,0,Wunderground v.1.15,2013-11-04 03:17:00,
2013-11-03 21:18:00,51.5,38.9,29.85,SE,132,21.0,22.0,62,0.00,,,0.00,0,Wunderground v.1.15,2013-11-04 03:18:00,
2013-11-03 21:19:00,51.5,38.9,29.85,ESE,123,20.0,23.0,62,0.00,,,0.00,0,Wunderground v.1.15,2013-11-04 03:19:00,
2013-11-03 21:22:00,51.5,38.9,29.85,SE,131,9.0,15.0,62,0.00,,,0.00,0,Wunderground v.1.15,2013-11-04 03:22:00,
2013-11-03 21:23:00,51.5,38.5,29.85,SE,134,13.0,15.0,61,0.00,,,0.00,0,Wunderground v.1.15,2013-11-04 03:23:00,
2013-11-03 21:24:00,51.5,38.5,29.85,SSE,147,14.0,16.0,61,0.00,,,0.00,0,Wunderground v.1.15,2013-11-04 03:24:00,
2013-11-03 21:28:00,51.5,38.9,29.85,SE,127,14.0,21.0,62,0.00,,,0.00,0,Wunderground v.1.15,2013-11-04 03:28:00,
2013-11-03 21:29:00,51.5,38.5,29.85,SE,126,11.0,21.0,61,0.00,,,0.00,0,Wunderground v.1.15,2013-11-04 03:29:00,
2013-11-03 21:33:00,51.3,38.7,29.85,SE,136,16.0,16.0,62,0.00,,,0.00,0,Wunderground v.1.15,2013-11-04 03:33:00,
2013-11-03 21:34:00,51.3,38.7,29.84,SE,130,16.0,16.0,62,0.00,,,0.00,0,Wunderground v.1.15,2013-11-04 03:34:00,
2013-11-03 21:38:00,51.5,38.9,29.84,SE,129,12.0,24.0,62,0.00,,,0.00,0,Wunderground v.1.15,2013-11-04 03:38:00,
2013-11-03 21:39:00,51.5,38.9,29.84,SE,135,15.0,24.0,62,0.00,,,0.00,0,Wunderground v.1.15,2013-11-04 03:39:00,
2013-11-03 21:40:00,51.5,38.9,29.84,SE,146,13.0,24.0,62,0.00,,,0.00,0,Wunderground v.1.15,2013-11-04 03:40:00,
2013-11-03 21:43:00,51.6,39.0,29.85,SSE,147,17.0,22.0,62,0.00,,,0.00,0,Wunderground v.1.15,2013-11-04 03:43:00,
2013-11-03 21:44:00,51.6,39.0,29.85,SE,132,18.0,22.0,62,0.00,,,0.00,0,Wunderground v.1.15,2013-11-04 03:44:00,
2013-11-03 21:45:00,51.5,38.9,29.85,SE,142,12.0,22.0,62,0.00,,,0.00,0,Wunderground v.1.15,2013-11-04 03:45:00,
2013-11-03 21:48:00,51.6,39.0,29.85,ESE,121,14.0,24.0,62,0.00,,,0.00,0,Wunderground v.1.15,2013-11-04 03:48:00,
2013-11-03 21:49:00,51.6,39.0,29.85,SSE,149,15.0,24.0,62,0.00,,,0.00,0,Wunderground v.1.15,2013-11-04 03:49:00,
2013-11-03 21:50:00,51.6,39.0,29.85,SSE,148,14.0,24.0,62,0.00,,,0.00,0,Wunderground v.1.15,2013-11-04 03:50:00,
2013-11-03 21:53:00,51.6,39.0,29.85,SSE,148,16.0,18.0,62,0.00,,,0.00,0,Wunderground v.1.15,2013-11-04 03:53:00,
2013-11-03 21:54:00,51.6,39.0,29.85,SE,136,13.0,18.0,62,0.00,,,0.00,0,Wunderground v.1.15,2013-11-04 03:54:00,
2013-11-03 21:56:00,51.5,38.9,29.85,SE,140,17.0,18.0,62,0.00,,,0.00,0,Wunderground v.1.15,2013-11-04 03:56:00,
2013-11-03 21:59:00,51.4,39.2,29.85,SE,124,11.0,20.0,63,0.00,,,0.00,0,Wunderground v.1.15,2013-11-04 03:59:00,
2013-11-03 22:00:00,51.4,39.2,29.85,SE,140,13.0,20.0,63,0.00,,,0.00,0,Wunderground v.1.15,2013-11-04 04:00:00,
2013-11-03 22:01:00,51.3,39.1,29.85,SSE,151,12.0,20.0,63,0.00,,,0.00,0,Wunderground v.1.15,2013-11-04 04:01:00,
2013-11-03 22:04:00,51.2,39.0,29.85,SE,131,15.0,17.0,63,0.00,,,0.00,0,Wunderground v.1.15,2013-11-04 04:04:00,
2013-11-03 22:06:00,51.2,39.0,29.85,SE,132,13.0,20.0,63,0.00,,,0.00,0,Wunderground v.1.15,2013-11-04 04:06:00,
2013-11-03 22:09:00,51.2,39.0,29.85,SE,139,14.0,20.0,63,0.00,,,0.00,0,Wunderground v.1.15,2013-11-04 04:09:00,
2013-11-03 22:11:00,51.2,39.0,29.85,SE,144,8.0,20.0,63,0.00,,,0.00,0,Wunderground v.1.15,2013-11-04 04:11:00,
2013-11-03 22:13:00,51.1,39.3,29.86,SE,142,11.0,15.0,64,0.00,,,0.00,0,Wunderground v.1.15,2013-11-04 04:13:00,
2013-11-03 22:14:00,51.1,39.3,29.86,SSE,154,14.0,15.0,64,0.00,,,0.00,0,Wunderground v.1.15,2013-11-04 04:14:00,
2013-11-03 22:16:00,51.0,39.2,29.86,SSE,154,13.0,18.0,64,0.00,,,0.00,0,Wunderground v.1.15,2013-11-04 04:16:00,
2013-11-03 22:17:00,51.0,39.2,29.86,SSE,148,15.0,18.0,64,0.00,,,0.00,0,Wunderground v.1.15,2013-11-04 04:17:00,
2013-11-03 22:19:00,51.0,39.2,29.86,SE,140,14.0,18.0,64,0.00,,,0.00,0,Wunderground v.1.15,2013-11-04 04:19:00,
2013-11-03 22:22:00,51.0,39.2,29.86,SE,138,14.0,18.0,64,0.00,,,0.00,0,Wunderground v.1.15,2013-11-04 04:22:00,
2013-11-03 22:24:00,50.9,39.5,29.86,SE,135,8.0,13.0,65,0.00,,,0.00,0,Wunderground v.1.15,2013-11-04 04:24:00,
2013-11-03 22:27:00,50.7,39.4,29.86,SSE,153,12.0,16.0,65,0.00,,,0.00,0,Wunderground v.1.15,2013-11-04 04:27:00,
2013-11-03 22:29:00,50.7,39.4,29.86,SE,144,7.0,17.0,65,0.00,,,0.00,0,Wunderground v.1.15,2013-11-04 04:29:00,
2013-11-03 22:30:00,50.7,39.4,29.86,SSE,160,8.0,17.0,65,0.00,,,0.00,0,Wunderground v.1.15,2013-11-04 04:30:00,
2013-11-03 22:32:00,50.6,39.7,29.86,SSE,159,12.0,17.0,66,0.00,,,0.00,0,Wunderground v.1.15,2013-11-04 04:32:00,
2013-11-03 22:35:00,50.6,39.7,29.85,SSE,151,13.0,19.0,66,0.00,,,0.00,0,Wunderground v.1.15,2013-11-04 04:35:00,
2013-11-03 22:36:00,50.6,39.7,29.85,SE,146,14.0,19.0,66,0.00,,,0.00,0,Wunderground v.1.15,2013-11-04 04:36:00,
2013-11-03 22:37:00,50.6,39.7,29.85,SSE,149,16.0,19.0,66,0.00,,,0.00,0,Wunderground v.1.15,2013-11-04 04:37:00,
2013-11-03 22:38:00,50.6,39.7,29.85,SE,144,12.0,19.0,66,0.00,,,0.00,0,Wunderground v.1.15,2013-11-04 04:38:00,
2013-11-03 22:40:00,50.6,39.3,29.85,SE,144,15.0,19.0,65,0.00,,,0.00,0,Wunderground v.1.15,2013-11-04 04:40:00,
2013-11-03 22:41:00,50.7,39.4,29.85,SE,139,11.0,19.0,65,0.00,,,0.00,0,Wunderground v.1.15,2013-11-04 04:41:00,
2013-11-03 22:42:00,50.7,39.4,29.85,SE,142,13.0,19.0,65,0.00,,,0.00,0,Wunderground v.1.15,2013-11-04 04:42:00,
2013-11-03 22:43:00,50.7,39.4,29.85,SE,146,10.0,13.0,65,0.00,,,0.00,0,Wunderground v.1.15,2013-11-04 04:43:00,
2013-11-03 22:45:00,50.7,39.7,29.85,SE,134,14.0,16.0,66,0.00,,,0.00,0,Wunderground v.1.15,2013-11-04 04:45:00,
2013-11-03 22:46:00,50.7,39.7,29.85,SE,140,15.0,19.0,66,0.00,,,0.00,0,Wunderground v.1.15,2013-11-04 04:46:00,
2013-11-03 22:47:00,50.7,39.4,29.85,SE,138,16.0,19.0,65,0.00,,,0.00,0,Wunderground v.1.15,2013-11-04 04:47:00,
2013-11-03 22:48:00,50.7,39.4,29.85,SE,146,8.0,19.0,65,0.00,,,0.00,0,Wunderground v.1.15,2013-11-04 04:48:00,
2013-11-03 22:50:00,50.7,39.7,29.85,SSE,148,11.0,20.0,66,0.00,,,0.00,0,Wunderground v.1.15,2013-11-04 04:50:00,
2013-11-03 22:54:00,50.7,39.7,29.85,SE,142,11.0,15.0,66,0.00,,,0.00,0,Wunderground v.1.15,2013-11-04 04:54:00,
2013-11-03 22:55:00,50.6,39.7,29.85,SSE,154,13.0,17.0,66,0.00,,,0.00,0,Wunderground v.1.15,2013-11-04 04:55:00,
2013-11-03 22:59:00,50.7,39.7,29.85,SE,140,8.0,21.0,66,0.00,,,0.00,0,Wunderground v.1.15,2013-11-04 04:59:00,
2013-11-03 23:00:00,50.7,39.4,29.85,SE,145,15.0,21.0,65,0.00,,,0.00,0,Wunderground v.1.15,2013-11-04 05:00:00,
2013-11-03 23:01:00,50.7,39.4,29.85,SE,129,17.0,21.0,65,0.00,,,0.00,0,Wunderground v.1.15,2013-11-04 05:01:00,
2013-11-03 23:02:00,50.7,39.4,29.85,SE,143,16.0,21.0,65,0.00,,,0.00,0,Wunderground v.1.15,2013-11-04 05:02:00,
2013-11-03 23:03:00,50.8,39.5,29.85,SE,141,13.0,18.0,65,0.00,,,0.00,0,Wunderground v.1.15,2013-11-04 05:03:00,
2013-11-03 23:06:00,50.9,39.5,29.84,SE,137,12.0,19.0,65,0.00,,,0.00,0,Wunderground v.1.15,2013-11-04 05:06:00,
2013-11-03 23:07:00,50.9,39.5,29.85,SSE,150,14.0,19.0,65,0.00,,,0.00,0,Wunderground v.1.15,2013-11-04 05:07:00,
2013-11-03 23:08:00,50.9,39.5,29.85,SE,127,13.0,19.0,65,0.00,,,0.00,0,Wunderground v.1.15,2013-11-04 05:08:00,
2013-11-03 23:11:00,50.8,39.5,29.85,SE,146,14.0,19.0,65,0.00,,,0.00,0,Wunderground v.1.15,2013-11-04 05:11:00,
2013-11-03 23:12:00,50.8,39.8,29.85,SE,126,12.0,13.0,66,0.00,,,0.00,0,Wunderground v.1.15,2013-11-04 05:12:00,
2013-11-03 23:13:00,50.8,39.5,29.85,SE,143,10.0,17.0,65,0.00,,,0.00,0,Wunderground v.1.15,2013-11-04 05:13:00,
2013-11-03 23:14:00,50.8,39.8,29.85,SE,128,9.0,17.0,66,0.00,,,0.00,0,Wunderground v.1.15,2013-11-04 05:14:00,
2013-11-03 23:16:00,50.8,39.5,29.85,SE,126,15.0,17.0,65,0.00,,,0.00,0,Wunderground v.1.15,2013-11-04 05:16:00,
2013-11-03 23:17:00,50.8,39.5,29.85,SSE,148,12.0,17.0,65,0.00,,,0.00,0,Wunderground v.1.15,2013-11-04 05:17:00,
2013-11-03 23:18:00,50.8,39.5,29.85,SE,132,8.0,17.0,65,0.00,,,0.00,0,Wunderground v.1.15,2013-11-04 05:18:00,
2013-11-03 23:20:00,50.8,39.5,29.85,SSE,148,9.0,17.0,65,0.00,,,0.00,0,Wunderground v.1.15,2013-11-04 05:20:00,
2013-11-03 23:21:00,50.7,39.7,29.85,SE,142,8.0,17.0,66,0.00,,,0.00,0,Wunderground v.1.15,2013-11-04 05:21:00,
2013-11-03 23:22:00,50.7,39.7,29.85,SE,126,11.0,17.0,66,0.00,,,0.00,0,Wunderground v.1.15,2013-11-04 05:22:00,
2013-11-03 23:23:00,50.7,39.4,29.85,SE,131,13.0,16.0,65,0.00,,,0.00,0,Wunderground v.1.15,2013-11-04 05:23:00,
2013-11-03 23:25:00,50.6,39.7,29.85,SE,137,11.0,16.0,66,0.00,,,0.00,0,Wunderground v.1.15,2013-11-04 05:25:00,
2013-11-03 23:27:00,50.6,39.7,29.85,SSE,155,13.0,16.0,66,0.00,,,0.00,0,Wunderground v.1.15,2013-11-04 05:27:00,
2013-11-03 23:29:00,50.5,39.6,29.85,SSE,147,13.0,16.0,66,0.00,,,0.00,0,Wunderground v.1.15,2013-11-04 05:29:00,
2013-11-03 23:31:00,50.5,39.6,29.84,SE,139,12.0,17.0,66,0.00,,,0.00,0,Wunderground v.1.15,2013-11-04 05:31:00,
2013-11-03 23:32:00,50.5,39.6,29.85,SSE,148,9.0,17.0,66,0.00,,,0.00,0,Wunderground v.1.15,2013-11-04 05:32:00,
2013-11-03 23:33:00,50.5,39.6,29.85,SSE,152,7.0,13.0,66,0.00,,,0.00,0,Wunderground v.1.15,2013-11-04 05:33:00,
2013-11-03 23:35:00,50.5,39.6,29.85,SE,134,9.0,15.0,66,0.00,,,0.00,0,Wunderground v.1.15,2013-11-04 05:35:00,
2013-11-03 23:36:00,50.5,39.6,29.85,SE,144,13.0,15.0,66,0.00,,,0.00,0,Wunderground v.1.15,2013-11-04 05:36:00,
2013-11-03 23:37:00,50.5,39.6,29.84,SSE,157,11.0,17.0,66,0.00,,,0.00,0,Wunderground v.1.15,2013-11-04 05:37:00,
2013-11-03 23:38:00,50.5,39.6,29.84,SSE,153,10.0,17.0,66,0.00,,,0.00,0,Wunderground v.1.15,2013-11-04 05:38:00,
2013-11-03 23:40:00,50.5,39.9,29.84,SE,130,10.0,17.0,67,0.00,,,0.00,0,Wunderground v.1.15,2013-11-04 05:40:00,
2013-11-03 23:41:00,50.5,39.6,29.84,SE,127,10.0,17.0,66,0.00,,,0.00,0,Wunderground v.1.15,2013-11-04 05:41:00,
2013-11-03 23:42:00,50.5,39.9,29.84,SSE,148,12.0,12.0,67,0.00,,,0.00,0,Wunderground v.1.15,2013-11-04 05:42:00,
2013-11-03 23:43:00,50.5,39.6,29.84,SE,139,13.0,13.0,66,0.00,,,0.00,0,Wunderground v.1.15,2013-11-04 05:43:00,
2013-11-03 23:44:00,50.5,39.6,29.84,SE,132,13.0,19.0,66,0.00,,,0.00,0,Wunderground v.1.15,2013-11-04 05:44:00,
2013-11-03 23:46:00,50.6,39.7,29.84,SE,130,13.0,19.0,66,0.00,,,0.00,0,Wunderground v.1.15,2013-11-04 05:46:00,
2013-11-03 23:47:00,50.6,39.7,29.84,SSE,153,10.0,19.0,66,0.00,,,0.00,0,Wunderground v.1.15,2013-11-04 05:47:00,
2013-11-03 23:48:00,50.6,39.7,29.84,SE,138,12.0,19.0,66,0.00,,,0.00,0,Wunderground v.1.15,2013-11-04 05:48:00,
2013-11-03 23:50:00,50.5,39.6,29.85,SE,143,10.0,19.0,66,0.00,,,0.00,0,Wunderground v.1.15,2013-11-04 05:50:00,
2013-11-03 23:51:00,50.5,39.9,29.85,SE,138,10.0,19.0,67,0.00,,,0.00,0,Wunderground v.1.15,2013-11-04 05:51:00,
2013-11-03 23:52:00,50.4,39.9,29.85,SE,136,10.0,12.0,67,0.00,,,0.00,0,Wunderground v.1.15,2013-11-04 05:52:00,
2013-11-03 23:53:00,50.4,39.9,29.85,SSE,147,10.0,14.0,67,0.00,,,0.00,0,Wunderground v.1.15,2013-11-04 05:53:00,
2013-11-03 23:54:00,50.4,39.9,29.85,SE,142,12.0,14.0,67,0.00,,,0.00,0,Wunderground v.1.15,2013-11-04 05:54:00,
2013-11-03 23:56:00,50.3,39.8,29.85,SSE,160,8.0,14.0,67,0.00,,,0.00,0,Wunderground v.1.15,2013-11-04 05:56:00,
2013-11-03 23:57:00,50.3,39.8,29.85,SSE,152,6.0,14.0,67,0.00,,,0.00,0,Wunderground v.1.15,2013-11-04 05:57:00,
2013-11-03 23:58:00,50.3,39.8,29.85,SSE,150,12.0,14.0,67,0.00,,,0.00,0,Wunderground v.1.15,2013-11-04 05:58:00,
2013-11-03 23:59:00,50.2,40.0,29.85,SSE,147,15.0,15.0,68,0.00,,,0.00,0,Wunderground v.1.15,2013-11-04 05:59:00,